Wetterdaten: Freitag, 24.06.2016
Datum Zeit Temp. Aussen Temp. o. S. +5cm Feuchte Auss BlattFeu 1 Luftdruck Regen Sonnenschein Regendauer Solar Windben Empfang
24.06.2016 00:00 21,1 C 19,4 C 18,3 C 90 % 15 lf 1016,5 hPa 0,0 l/m 0 min 0 min 5 W/m 16,7 km/h (3 Bft) 97,87 %
24.06.2016 00:02 21,1 C 19,4 C 18,3 C 90 % 15 lf 1016,5 hPa 0,0 l/m 0 min 0 min 5 W/m 8,4 km/h (2 Bft) 14,29 %
24.06.2016 00:06 20,9 C 19,4 C 18,3 C 91 % 15 lf 1016,3 hPa 0,0 l/m 0 min 0 min 5 W/m 14,6 km/h (3 Bft) 82,35 %
24.06.2016 00:08 20,9 C 19,4 C 18,3 C 91 % 15 lf 1016,2 hPa 0,0 l/m 0 min 0 min 5 W/m 12,6 km/h (3 Bft) 95,74 %
24.06.2016 00:10 20,9 C 19,4 C 18,3 C 92 % 15 lf 1016,1 hPa 0,0 l/m 0 min 0 min 5 W/m 4,2 km/h (1 Bft) 93,62 %
24.06.2016 00:12 20,9 C 19,4 C 18,3 C 92 % 15 lf 1016,0 hPa 0,0 l/m 0 min 0 min 5 W/m 6,3 km/h (2 Bft) 97,87 %
24.06.2016 00:14 20,9 C 19,4 C 18,3 C 92 % 15 lf 1016,0 hPa 0,0 l/m 0 min 0 min 5 W/m 6,3 km/h (2 Bft) 97,83 %
24.06.2016 00:16 20,8 C 19,4 C 18,3 C 92 % 15 lf 1016,0 hPa 0,0 l/m 0 min 0 min 5 W/m 6,3 km/h (2 Bft) 97,87 %
24.06.2016 00:18 20,8 C 19,4 C 18,3 C 92 % 15 lf 1015,8 hPa 0,0 l/m 0 min 0 min 5 W/m 10,5 km/h (2 Bft) 95,74 %
24.06.2016 00:20 20,8 C 19,4 C 18,3 C 92 % 15 lf 1015,7 hPa 0,0 l/m 0 min 0 min 5 W/m 12,6 km/h (3 Bft) 97,87 %
24.06.2016 00:22 20,8 C 19,4 C 18,3 C 92 % 15 lf 1015,6 hPa 0,0 l/m 0 min 0 min 5 W/m 6,3 km/h (2 Bft) 95,74 %
24.06.2016 00:24 20,8 C 19,4 C 18,9 C 92 % 15 lf 1015,6 hPa 0,0 l/m 0 min 0 min 5 W/m 16,7 km/h (3 Bft) 97,83 %
24.06.2016 00:26 20,8 C 19,4 C 18,3 C 92 % 15 lf 1015,6 hPa 0,0 l/m 0 min 0 min 5 W/m 14,6 km/h (3 Bft) 97,87 %
24.06.2016 00:28 20,7 C 19,4 C 18,3 C 93 % 15 lf 1015,6 hPa 0,0 l/m 0 min 0 min 5 W/m 14,6 km/h (3 Bft) 95,74 %
24.06.2016 00:30 20,7 C 19,4 C 18,3 C 93 % 15 lf 1015,5 hPa 0,0 l/m 0 min 0 min 5 W/m 10,5 km/h (2 Bft) 97,87 %
24.06.2016 00:32 20,7 C 19,4 C 18,3 C 93 % 15 lf 1015,5 hPa 0,0 l/m 0 min 0 min 5 W/m 12,6 km/h (3 Bft) 93,62 %
24.06.2016 00:34 20,7 C 19,4 C 18,3 C 93 % 15 lf 1015,3 hPa 0,0 l/m 0 min 0 min 5 W/m 12,6 km/h (3 Bft) 95,74 %
24.06.2016 00:36 20,6 C 19,4 C 18,3 C 93 % 15 lf 1015,2 hPa 0,0 l/m 0 min 0 min 5 W/m 14,6 km/h (3 Bft) 97,83 %
24.06.2016 00:38 20,6 C 19,4 C 18,3 C 93 % 15 lf 1015,1 hPa 0,0 l/m 0 min 0 min 5 W/m 14,6 km/h (3 Bft) 95,74 %
24.06.2016 00:40 20,6 C 19,4 C 18,3 C 93 % 15 lf 1015,2 hPa 0,0 l/m 0 min 0 min 5 W/m 14,6 km/h (3 Bft) 91,49 %
24.06.2016 00:42 20,6 C 19,4 C 18,3 C 93 % 15 lf 1015,4 hPa 0,0 l/m 0 min 0 min 5 W/m 10,5 km/h (2 Bft) 97,87 %
24.06.2016 00:44 20,5 C 19,4 C 18,3 C 93 % 15 lf 1015,4 hPa 0,0 l/m 0 min 0 min 5 W/m 10,5 km/h (2 Bft) 95,74 %
24.06.2016 00:46 20,5 C 19,4 C 18,3 C 93 % 15 lf 1015,5 hPa 0,0 l/m 0 min 0 min 5 W/m 10,5 km/h (2 Bft) 93,62 %
24.06.2016 00:48 20,4 C 19,4 C 18,3 C 93 % 15 lf 1015,5 hPa 0,0 l/m 0 min 0 min 5 W/m 10,5 km/h (2 Bft) 93,48 %
24.06.2016 00:50 20,4 C 19,4 C 18,3 C 93 % 15 lf 1015,4 hPa 0,0 l/m 0 min 0 min 5 W/m 10,5 km/h (2 Bft) 95,74 %
24.06.2016 00:52 20,4 C 19,4 C 18,3 C 94 % 15 lf 1015,3 hPa 0,0 l/m 0 min 0 min 5 W/m 12,6 km/h (3 Bft) 95,74 %
24.06.2016 00:54 20,4 C 19,4 C 18,3 C 94 % 15 lf 1015,2 hPa 0,0 l/m 0 min 0 min 5 W/m 10,5 km/h (2 Bft) 93,62 %
24.06.2016 00:56 20,4 C 19,4 C 18,3 C 94 % 15 lf 1015,2 hPa 0,0 l/m 0 min 0 min 5 W/m 14,6 km/h (3 Bft) 97,87 %
24.06.2016 00:58 20,3 C 19,4 C 18,3 C 94 % 15 lf 1015,2 hPa 0,0 l/m 0 min 0 min 5 W/m 16,7 km/h (3 Bft) 95,74 %
24.06.2016 01:00 20,3 C 19,4 C 18,3 C 94 % 15 lf 1015,2 hPa 0,0 l/m 0 min 0 min 5 W/m 10,5 km/h (2 Bft) 97,83 %
24.06.2016 01:02 20,3 C 19,4 C 18,3 C 94 % 15 lf 1015,4 hPa 0,0 l/m 0 min 0 min 5 W/m 6,3 km/h (2 Bft) 97,87 %
24.06.2016 01:04 20,3 C 19,4 C 18,3 C 94 % 15 lf 1015,7 hPa 0,0 l/m 0 min 0 min 5 W/m 6,3 km/h (2 Bft) 89,36 %
24.06.2016 01:06 20,3 C 19,4 C 18,3 C 94 % 15 lf 1015,8 hPa 0,0 l/m 0 min 0 min 5 W/m 6,3 km/h (2 Bft) 97,87 %
24.06.2016 01:08 20,3 C 19,4 C 18,3 C 94 % 15 lf 1015,9 hPa 0,0 l/m 0 min 0 min 5 W/m 6,3 km/h (2 Bft) 95,74 %
24.06.2016 01:10 20,3 C 19,4 C 18,3 C 94 % 15 lf 1015,9 hPa 0,0 l/m 0 min 0 min 5 W/m 6,3 km/h (2 Bft) 95,74 %
24.06.2016 01:12 20,2 C 19,4 C 18,3 C 94 % 15 lf 1016,0 hPa 0,0 l/m 0 min 0 min 5 W/m 6,3 km/h (2 Bft) 93,48 %
24.06.2016 01:14 20,2 C 19,4 C 18,3 C 94 % 15 lf 1016,0 hPa 0,0 l/m 0 min 0 min 5 W/m 6,3 km/h (2 Bft) 93,62 %
24.06.2016 01:16 20,3 C 19,4 C 18,3 C 94 % 15 lf 1015,9 hPa 0,0 l/m 0 min 0 min 5 W/m 4,2 km/h (1 Bft) 93,62 %
24.06.2016 01:18 20,2 C 19,4 C 18,3 C 94 % 15 lf 1015,7 hPa 0,0 l/m 0 min 0 min 5 W/m 2,1 km/h (1 Bft) 93,62 %
24.06.2016 01:20 20,2 C 19,4 C 18,3 C 94 % 15 lf 1015,5 hPa 0,0 l/m 0 min 0 min 5 W/m 6,3 km/h (2 Bft) 93,62 %
24.06.2016 01:22 20,2 C 19,4 C 18,3 C 95 % 15 lf 1015,1 hPa 0,0 l/m 0 min 0 min 5 W/m 16,7 km/h (3 Bft) 95,74 %
24.06.2016 01:24 20,2 C 19,4 C 18,3 C 95 % 15 lf 1014,9 hPa 0,0 l/m 0 min 0 min 5 W/m 14,6 km/h (3 Bft) 95,65 %
24.06.2016 01:26 20,2 C 19,4 C 18,3 C 95 % 15 lf 1014,9 hPa 0,0 l/m 0 min 0 min 5 W/m 14,6 km/h (3 Bft) 89,36 %
24.06.2016 01:28 20,2 C 19,4 C 18,3 C 95 % 15 lf 1014,9 hPa 0,0 l/m 0 min 0 min 5 W/m 16,7 km/h (3 Bft) 95,74 %
24.06.2016 01:30 20,2 C 19,4 C 18,3 C 95 % 15 lf 1014,8 hPa 0,0 l/m 0 min 0 min 5 W/m 10,5 km/h (2 Bft) 93,62 %
24.06.2016 01:32 20,2 C 19,4 C 18,3 C 95 % 15 lf 1014,9 hPa 0,0 l/m 0 min 0 min 5 W/m 14,6 km/h (3 Bft) 95,74 %
24.06.2016 01:34 20,1 C 19,4 C 18,3 C 95 % 15 lf 1014,9 hPa 0,0 l/m 0 min 0 min 5 W/m 14,6 km/h (3 Bft) 95,65 %
24.06.2016 01:36 20,1 C 19,4 C 18,3 C 95 % 15 lf 1014,9 hPa 0,0 l/m 0 min 0 min 5 W/m 16,7 km/h (3 Bft) 93,62 %
24.06.2016 01:38 20,1 C 19,4 C 18,3 C 95 % 15 lf 1015,1 hPa 0,0 l/m 0 min 0 min 5 W/m 10,5 km/h (2 Bft) 97,87 %
24.06.2016 01:40 20,1 C 19,4 C 18,3 C 95 % 15 lf 1015,2 hPa 0,0 l/m 0 min 0 min 5 W/m 6,3 km/h (2 Bft) 97,87 %
24.06.2016 01:42 20,1 C 19,4 C 18,3 C 95 % 15 lf 1015,4 hPa 0,0 l/m 0 min 0 min 5 W/m 8,4 km/h (2 Bft) 91,49 %
24.06.2016 01:44 20,0 C 18,9 C 18,3 C 95 % 15 lf 1015,6 hPa 0,0 l/m 0 min 0 min 5 W/m 8,4 km/h (2 Bft) 93,62 %
24.06.2016 01:46 20,0 C 18,9 C 18,3 C 95 % 15 lf 1016,0 hPa 0,0 l/m 0 min 0 min 5 W/m 8,4 km/h (2 Bft) 97,83 %
24.06.2016 01:48 20,0 C 19,4 C 18,3 C 95 % 15 lf 1016,0 hPa 0,0 l/m 0 min 0 min 5 W/m 8,4 km/h (2 Bft) 97,87 %
24.06.2016 01:50 20,0 C 19,4 C 18,3 C 95 % 15 lf 1016,1 hPa 0,0 l/m 0 min 0 min 5 W/m 2,1 km/h (1 Bft) 97,87 %
24.06.2016 01:52 20,0 C 19,4 C 18,3 C 95 % 15 lf 1016,1 hPa 0,0 l/m 0 min 0 min 5 W/m 6,3 km/h (2 Bft) 97,87 %
24.06.2016 01:54 20,0 C 19,4 C 18,3 C 95 % 15 lf 1016,0 hPa 0,0 l/m 0 min 0 min 5 W/m 4,2 km/h (1 Bft) 91,49 %
24.06.2016 01:56 20,0 C 19,4 C 18,3 C 95 % 15 lf 1016,1 hPa 0,0 l/m 0 min 0 min 5 W/m 6,3 km/h (2 Bft) 97,87 %
24.06.2016 01:58 20,0 C 19,4 C 18,3 C 95 % 15 lf 1016,3 hPa 0,0 l/m 0 min 0 min 5 W/m 8,4 km/h (2 Bft) 95,65 %
24.06.2016 02:00 20,0 C 19,4 C 18,3 C 95 % 15 lf 1016,4 hPa 0,0 l/m 0 min 0 min 5 W/m 6,3 km/h (2 Bft) 97,87 %
24.06.2016 02:02 20,0 C 19,4 C 18,3 C 96 % 15 lf 1016,5 hPa 0,0 l/m 0 min 0 min 5 W/m 6,3 km/h (2 Bft) 95,74 %
24.06.2016 02:04 20,0 C 19,4 C 18,3 C 96 % 15 lf 1016,8 hPa 0,0 l/m 0 min 0 min 5 W/m 16,7 km/h (3 Bft) 95,74 %
24.06.2016 02:06 20,1 C 19,4 C 18,3 C 96 % 15 lf 1017,1 hPa 0,0 l/m 0 min 0 min 5 W/m 14,6 km/h (3 Bft) 97,87 %
24.06.2016 02:08 20,1 C 19,4 C 18,3 C 96 % 15 lf 1016,8 hPa 0,0 l/m 0 min 0 min 5 W/m 14,6 km/h (3 Bft) 95,74 %
24.06.2016 02:10 20,1 C 19,4 C 18,3 C 96 % 15 lf 1016,6 hPa 0,0 l/m 0 min 0 min 5 W/m 4,2 km/h (1 Bft) 95,65 %
24.06.2016 02:12 20,1 C 19,4 C 18,3 C 96 % 15 lf 1016,7 hPa 0,0 l/m 0 min 0 min 5 W/m 6,3 km/h (2 Bft) 97,87 %
24.06.2016 02:14 20,1 C 19,4 C 18,3 C 96 % 15 lf 1016,7 hPa 0,0 l/m 0 min 0 min 5 W/m 6,3 km/h (2 Bft) 97,87 %
24.06.2016 02:16 20,1 C 19,4 C 18,3 C 96 % 15 lf 1016,6 hPa 0,0 l/m 0 min 2 min 5 W/m 8,4 km/h (2 Bft) 95,74 %
24.06.2016 02:18 20,0 C 19,4 C 18,3 C 96 % 15 lf 1016,6 hPa 0,0 l/m 0 min 2 min 5 W/m 2,1 km/h (1 Bft) 95,74 %
24.06.2016 02:20 20,0 C 19,4 C 18,3 C 96 % 15 lf 1016,7 hPa 0,0 l/m 0 min 2 min 5 W/m 8,4 km/h (2 Bft) 97,87 %
24.06.2016 02:22 20,0 C 19,4 C 18,3 C 96 % 15 lf 1016,7 hPa 0,2 l/m 0 min 2 min 5 W/m 10,5 km/h (2 Bft) 97,83 %
24.06.2016 02:24 20,0 C 19,4 C 18,3 C 96 % 15 lf 1016,6 hPa 0,2 l/m 0 min 2 min 5 W/m 8,4 km/h (2 Bft) 95,74 %
24.06.2016 02:26 20,0 C 19,4 C 18,3 C 96 % 15 lf 1016,6 hPa 1,2 l/m 0 min 2 min 5 W/m 8,4 km/h (2 Bft) 97,87 %
24.06.2016 02:28 20,0 C 19,4 C 18,3 C 96 % 15 lf 1016,6 hPa 1,0 l/m 0 min 2 min 5 W/m 10,5 km/h (2 Bft) 95,74 %
24.06.2016 02:30 20,0 C 19,4 C 18,3 C 96 % 15 lf 1016,7 hPa 1,8 l/m 0 min 2 min 5 W/m 12,6 km/h (3 Bft) 95,74 %
24.06.2016 02:32 20,1 C 19,4 C 18,3 C 96 % 15 lf 1016,7 hPa 2,0 l/m 0 min 2 min 0 W/m 18,8 km/h (3 Bft) 97,87 %
24.06.2016 02:34 20,1 C 19,4 C 18,3 C 96 % 15 lf 1015,9 hPa 0,2 l/m 0 min 2 min 0 W/m 16,7 km/h (3 Bft) 95,65 %
24.06.2016 02:36 20,1 C 19,4 C 18,3 C 96 % 15 lf 1015,2 hPa 1,2 l/m 0 min 2 min 0 W/m 16,7 km/h (3 Bft) 95,74 %
24.06.2016 02:38 20,1 C 19,4 C 18,3 C 96 % 15 lf 1015,3 hPa 0,6 l/m 0 min 2 min 0 W/m 14,6 km/h (3 Bft) 97,87 %
24.06.2016 02:40 20,0 C 19,4 C 18,3 C 96 % 15 lf 1015,8 hPa 0,4 l/m 0 min 2 min 0 W/m 12,6 km/h (3 Bft) 93,62 %
24.06.2016 02:42 20,0 C 19,4 C 18,3 C 96 % 15 lf 1016,0 hPa 0,2 l/m 0 min 2 min 0 W/m 14,6 km/h (3 Bft) 97,87 %
24.06.2016 02:44 20,0 C 19,4 C 18,3 C 96 % 15 lf 1016,2 hPa 0,6 l/m 0 min 2 min 0 W/m 12,6 km/h (3 Bft) 100,00 %
24.06.2016 02:46 20,0 C 19,4 C 18,3 C 96 % 15 lf 1016,6 hPa 0,8 l/m 0 min 2 min 0 W/m 12,6 km/h (3 Bft) 97,83 %
24.06.2016 02:48 20,0 C 19,4 C 18,3 C 96 % 15 lf 1016,9 hPa 0,6 l/m 0 min 2 min 0 W/m 12,6 km/h (3 Bft) 97,87 %
24.06.2016 02:50 20,0 C 19,4 C 18,3 C 96 % 15 lf 1016,9 hPa 0,2 l/m 0 min 2 min 0 W/m 12,6 km/h (3 Bft) 95,74 %
24.06.2016 02:52 20,0 C 18,9 C 18,3 C 97 % 15 lf 1016,5 hPa 1,4 l/m 0 min 2 min 0 W/m 8,4 km/h (2 Bft) 100,00 %
24.06.2016 02:54 20,0 C 18,9 C 18,3 C 97 % 15 lf 1015,9 hPa 1,6 l/m 0 min 2 min 0 W/m 8,4 km/h (2 Bft) 97,87 %
24.06.2016 02:56 19,9 C 18,9 C 18,3 C 97 % 15 lf 1015,8 hPa 1,2 l/m 0 min 2 min 0 W/m 12,6 km/h (3 Bft) 100,00 %
24.06.2016 02:58 19,9 C 18,9 C 18,3 C 97 % 15 lf 1015,8 hPa 1,8 l/m 0 min 2 min 0 W/m 12,6 km/h (3 Bft) 97,87 %
24.06.2016 03:00 19,9 C 18,9 C 18,3 C 97 % 15 lf 1016,0 hPa 0,8 l/m 0 min 2 min 0 W/m 2,1 km/h (1 Bft) 95,74 %
24.06.2016 03:02 19,9 C 18,9 C 17,8 C 97 % 15 lf 1015,9 hPa 0,4 l/m 0 min 2 min 0 W/m 4,2 km/h (1 Bft) 93,62 %
24.06.2016 03:04 19,9 C 18,9 C 17,8 C 97 % 15 lf 1016,3 hPa 0,4 l/m 0 min 2 min 0 W/m 4,2 km/h (1 Bft) 91,49 %
24.06.2016 03:06 19,8 C 18,9 C 17,8 C 97 % 15 lf 1016,6 hPa 0,4 l/m 0 min 2 min 0 W/m 6,3 km/h (2 Bft) 95,74 %
24.06.2016 03:08 19,8 C 18,9 C 17,8 C 97 % 15 lf 1016,6 hPa 0,2 l/m 0 min 2 min 0 W/m 6,3 km/h (2 Bft) 91,30 %
24.06.2016 03:10 19,8 C 18,9 C 17,8 C 97 % 15 lf 1016,6 hPa 0,0 l/m 0 min 2 min 0 W/m 6,3 km/h (2 Bft) 95,74 %
24.06.2016 03:12 19,8 C 18,9 C 17,8 C 97 % 15 lf 1016,6 hPa 0,0 l/m 0 min 2 min 0 W/m 6,3 km/h (2 Bft) 95,74 %
24.06.2016 03:14 19,8 C 18,9 C 17,8 C 97 % 15 lf 1016,7 hPa 0,6 l/m 0 min 2 min 0 W/m 6,3 km/h (2 Bft) 95,74 %
24.06.2016 03:16 19,8 C 18,9 C 17,8 C 97 % 15 lf 1016,8 hPa 0,6 l/m 0 min 2 min 0 W/m 8,4 km/h (2 Bft) 95,74 %
24.06.2016 03:18 19,8 C 18,9 C 17,8 C 97 % 15 lf 1016,6 hPa 2,2 l/m 0 min 2 min 0 W/m 10,5 km/h (2 Bft) 95,74 %
24.06.2016 03:20 19,7 C 18,9 C 17,8 C 97 % 15 lf 1015,8 hPa 1,6 l/m 0 min 2 min 0 W/m 12,6 km/h (3 Bft) 97,83 %
24.06.2016 03:22 19,7 C 18,9 C 17,8 C 97 % 15 lf 1015,9 hPa 0,0 l/m 0 min 2 min 0 W/m 8,4 km/h (2 Bft) 91,49 %
24.06.2016 03:24 19,7 C 18,9 C 17,8 C 97 % 15 lf 1015,8 hPa 0,0 l/m 0 min 2 min 0 W/m 2,1 km/h (1 Bft) 91,49 %
24.06.2016 03:26 19,7 C 18,9 C 17,8 C 97 % 15 lf 1015,9 hPa 0,0 l/m 0 min 0 min 0 W/m 4,2 km/h (1 Bft) 93,62 %
24.06.2016 03:28 19,7 C 18,9 C 17,8 C 97 % 15 lf 1015,8 hPa 0,0 l/m 0 min 0 min 0 W/m 10,5 km/h (2 Bft) 95,74 %
24.06.2016 03:30 19,7 C 18,9 C 17,8 C 97 % 15 lf 1015,7 hPa 0,0 l/m 0 min 0 min 0 W/m 10,5 km/h (2 Bft) 91,49 %
24.06.2016 03:32 19,6 C 18,9 C 17,8 C 97 % 15 lf 1015,8 hPa 0,0 l/m 0 min 0 min 0 W/m 10,5 km/h (2 Bft) 93,48 %
24.06.2016 03:34 19,6 C 18,9 C 17,8 C 97 % 15 lf 1015,6 hPa 0,0 l/m 0 min 0 min 0 W/m 8,4 km/h (2 Bft) 95,74 %
24.06.2016 03:36 19,6 C 18,9 C 17,8 C 97 % 15 lf 1015,8 hPa 0,0 l/m 0 min 0 min 0 W/m 12,6 km/h (3 Bft) 95,74 %
24.06.2016 03:38 19,6 C 18,9 C 17,8 C 97 % 15 lf 1015,8 hPa 0,0 l/m 0 min 0 min 0 W/m 14,6 km/h (3 Bft) 91,49 %
24.06.2016 03:40 19,6 C 18,9 C 17,8 C 97 % 15 lf 1015,8 hPa 0,0 l/m 0 min 0 min 0 W/m 12,6 km/h (3 Bft) 93,62 %
24.06.2016 03:42 19,6 C 18,9 C 17,8 C 97 % 15 lf 1015,8 hPa 0,0 l/m 0 min 0 min 0 W/m 6,3 km/h (2 Bft) 95,74 %
24.06.2016 03:44 19,6 C 18,9 C 17,8 C 97 % 15 lf 1015,9 hPa 0,0 l/m 0 min 0 min 0 W/m 6,3 km/h (2 Bft) 97,83 %
24.06.2016 03:46 19,6 C 18,9 C 17,8 C 97 % 15 lf 1015,7 hPa 0,0 l/m 0 min 0 min 0 W/m 12,6 km/h (3 Bft) 97,87 %
24.06.2016 03:48 19,6 C 18,9 C 17,8 C 97 % 15 lf 1015,4 hPa 0,0 l/m 0 min 0 min 0 W/m 14,6 km/h (3 Bft) 97,87 %
24.06.2016 03:50 19,6 C 18,9 C 17,8 C 97 % 15 lf 1015,2 hPa 0,2 l/m 0 min 0 min 0 W/m 16,7 km/h (3 Bft) 95,74 %
24.06.2016 03:52 19,6 C 18,9 C 17,8 C 97 % 15 lf 1015,6 hPa 0,2 l/m 0 min 2 min 0 W/m 14,6 km/h (3 Bft) 100,00 %
24.06.2016 03:54 19,6 C 18,9 C 17,8 C 97 % 15 lf 1015,7 hPa 0,0 l/m 0 min 2 min 0 W/m 10,5 km/h (2 Bft) 97,87 %
24.06.2016 03:56 19,6 C 18,9 C 17,8 C 98 % 15 lf 1015,7 hPa 0,0 l/m 0 min 2 min 0 W/m 10,5 km/h (2 Bft) 100,00 %
24.06.2016 03:58 19,6 C 18,9 C 17,8 C 98 % 15 lf 1015,8 hPa 0,0 l/m 0 min 0 min 0 W/m 4,2 km/h (1 Bft) 100,00 %
24.06.2016 04:00 19,6 C 18,9 C 17,8 C 98 % 15 lf 1015,7 hPa 0,0 l/m 0 min 2 min 0 W/m 6,3 km/h (2 Bft) 100,00 %
24.06.2016 04:05 19,6 C 18,9 C 17,8 C 98 % 15 lf 1015,4 hPa 0,0 l/m 0 min 2 min 0 W/m 18,8 km/h (3 Bft) 95,95 %
24.06.2016 04:06 19,6 C 18,9 C 17,8 C 98 % 15 lf 1015,4 hPa 0,0 l/m 0 min 1 min 0 W/m 16,7 km/h (3 Bft) 100,00 %
24.06.2016 04:08 19,6 C 18,9 C 17,8 C 97 % 15 lf 1015,4 hPa 0,0 l/m 0 min 0 min 0 W/m 16,7 km/h (3 Bft) 97,83 %
24.06.2016 04:10 19,6 C 19,4 C 17,8 C 98 % 15 lf 1015,5 hPa 0,0 l/m 0 min 0 min 0 W/m 14,6 km/h (3 Bft) 97,87 %
24.06.2016 04:12 19,6 C 18,9 C 17,8 C 98 % 15 lf 1015,4 hPa 0,0 l/m 0 min 0 min 0 W/m 16,7 km/h (3 Bft) 100,00 %
24.06.2016 04:14 19,6 C 18,9 C 17,8 C 98 % 15 lf 1015,5 hPa 0,0 l/m 0 min 0 min 0 W/m 16,7 km/h (3 Bft) 95,74 %
24.06.2016 04:16 19,6 C 18,9 C 17,8 C 98 % 15 lf 1015,5 hPa 0,0 l/m 0 min 0 min 0 W/m 14,6 km/h (3 Bft) 100,00 %
24.06.2016 04:18 19,6 C 18,9 C 17,8 C 98 % 15 lf 1015,7 hPa 0,0 l/m 0 min 0 min 0 W/m 4,2 km/h (1 Bft) 97,87 %
24.06.2016 04:20 19,6 C 18,9 C 17,8 C 98 % 15 lf 1015,7 hPa 0,0 l/m 0 min 0 min 0 W/m 4,2 km/h (1 Bft) 95,65 %
24.06.2016 04:22 19,6 C 18,9 C 17,8 C 98 % 15 lf 1015,8 hPa 0,0 l/m 0 min 0 min 0 W/m 2,1 km/h (1 Bft) 93,62 %
24.06.2016 04:24 19,6 C 18,9 C 17,8 C 98 % 15 lf 1015,8 hPa 0,0 l/m 0 min 0 min 0 W/m 4,2 km/h (1 Bft) 97,87 %
24.06.2016 04:26 19,6 C 18,9 C 17,8 C 98 % 15 lf 1015,8 hPa 0,0 l/m 0 min 0 min 0 W/m 4,2 km/h (1 Bft) 95,74 %
24.06.2016 04:28 19,6 C 18,9 C 17,8 C 98 % 15 lf 1015,8 hPa 0,0 l/m 0 min 0 min 0 W/m 6,3 km/h (2 Bft) 97,87 %
24.06.2016 04:30 19,6 C 18,9 C 17,8 C 98 % 15 lf 1015,7 hPa 0,0 l/m 0 min 0 min 0 W/m 10,5 km/h (2 Bft) 93,48 %
24.06.2016 04:32 19,6 C 18,9 C 17,8 C 98 % 15 lf 1015,8 hPa 0,0 l/m 0 min 0 min 0 W/m 10,5 km/h (2 Bft) 93,62 %
24.06.2016 04:34 19,6 C 18,9 C 17,8 C 98 % 15 lf 1015,8 hPa 0,0 l/m 0 min 0 min 0 W/m 10,5 km/h (2 Bft) 93,62 %
24.06.2016 04:36 19,6 C 18,9 C 17,8 C 98 % 15 lf 1015,8 hPa 0,0 l/m 0 min 0 min 0 W/m 8,4 km/h (2 Bft) 93,62 %
24.06.2016 04:38 19,6 C 18,9 C 17,8 C 98 % 15 lf 1015,8 hPa 0,0 l/m 0 min 0 min 0 W/m 4,2 km/h (1 Bft) 95,74 %
24.06.2016 04:40 19,6 C 18,9 C 17,8 C 98 % 15 lf 1015,8 hPa 0,0 l/m 0 min 0 min 0 W/m 8,4 km/h (2 Bft) 95,74 %
24.06.2016 04:42 19,6 C 18,9 C 17,8 C 98 % 15 lf 1015,7 hPa 0,0 l/m 0 min 0 min 0 W/m 6,3 km/h (2 Bft) 95,65 %
24.06.2016 04:44 19,6 C 18,9 C 17,8 C 98 % 15 lf 1015,6 hPa 0,0 l/m 0 min 0 min 0 W/m 6,3 km/h (2 Bft) 95,74 %
24.06.2016 04:46 19,5 C 18,9 C 17,8 C 98 % 15 lf 1015,6 hPa 0,0 l/m 0 min 0 min 0 W/m 8,4 km/h (2 Bft) 93,62 %
24.06.2016 04:48 19,5 C 18,9 C 17,8 C 98 % 15 lf 1015,4 hPa 0,0 l/m 0 min 0 min 0 W/m 8,4 km/h (2 Bft) 91,49 %
24.06.2016 04:50 19,5 C 18,9 C 17,8 C 98 % 15 lf 1015,2 hPa 0,0 l/m 0 min 0 min 0 W/m 6,3 km/h (2 Bft) 95,74 %
24.06.2016 04:52 19,5 C 18,9 C 17,8 C 98 % 15 lf 1015,1 hPa 0,0 l/m 0 min 0 min 0 W/m 12,6 km/h (3 Bft) 93,62 %
24.06.2016 04:54 19,5 C 18,9 C 17,8 C 98 % 15 lf 1015,1 hPa 0,0 l/m 0 min 0 min 0 W/m 10,5 km/h (2 Bft) 91,30 %
24.06.2016 04:56 19,5 C 18,9 C 17,8 C 98 % 15 lf 1015,1 hPa 0,0 l/m 0 min 0 min 0 W/m 10,5 km/h (2 Bft) 95,74 %
24.06.2016 04:58 19,5 C 18,9 C 17,8 C 98 % 15 lf 1015,0 hPa 0,0 l/m 0 min 0 min 0 W/m 8,4 km/h (2 Bft) 93,62 %
24.06.2016 05:00 19,4 C 18,9 C 17,8 C 98 % 15 lf 1015,0 hPa 0,0 l/m 0 min 0 min 0 W/m 10,5 km/h (2 Bft) 91,49 %
24.06.2016 05:02 19,4 C 18,9 C 17,8 C 98 % 15 lf 1015,0 hPa 0,0 l/m 0 min 0 min 0 W/m 12,6 km/h (3 Bft) 91,49 %
24.06.2016 05:04 19,4 C 18,9 C 17,8 C 98 % 15 lf 1014,9 hPa 0,0 l/m 0 min 0 min 0 W/m 10,5 km/h (2 Bft) 93,62 %
24.06.2016 05:06 19,4 C 18,9 C 17,8 C 98 % 15 lf 1014,8 hPa 0,0 l/m 0 min 0 min 0 W/m 10,5 km/h (2 Bft) 93,48 %
24.06.2016 05:08 19,4 C 18,9 C 17,8 C 98 % 15 lf 1014,8 hPa 0,0 l/m 0 min 0 min 0 W/m 12,6 km/h (3 Bft) 93,62 %
24.06.2016 05:10 19,4 C 18,9 C 17,8 C 98 % 15 lf 1014,8 hPa 0,0 l/m 0 min 0 min 0 W/m 10,5 km/h (2 Bft) 87,23 %
24.06.2016 05:12 19,4 C 18,9 C 17,8 C 98 % 15 lf 1014,8 hPa 0,0 l/m 0 min 0 min 5 W/m 6,3 km/h (2 Bft) 87,23 %
24.06.2016 05:14 19,4 C 18,9 C 17,8 C 98 % 15 lf 1014,8 hPa 0,0 l/m 0 min 0 min 5 W/m 6,3 km/h (2 Bft) 91,49 %
24.06.2016 05:16 19,4 C 18,9 C 17,8 C 98 % 15 lf 1014,9 hPa 0,0 l/m 0 min 0 min 5 W/m 4,2 km/h (1 Bft) 93,62 %
24.06.2016 05:18 19,4 C 18,9 C 17,8 C 98 % 15 lf 1014,9 hPa 0,0 l/m 0 min 0 min 5 W/m 6,3 km/h (2 Bft) 93,48 %
24.06.2016 05:20 19,4 C 18,9 C 17,8 C 98 % 15 lf 1015,0 hPa 0,0 l/m 0 min 0 min 5 W/m 4,2 km/h (1 Bft) 89,36 %
24.06.2016 05:22 19,4 C 18,9 C 17,8 C 98 % 15 lf 1015,1 hPa 0,0 l/m 0 min 0 min 5 W/m 4,2 km/h (1 Bft) 93,62 %
24.06.2016 05:24 19,4 C 18,9 C 17,8 C 98 % 15 lf 1015,1 hPa 0,0 l/m 0 min 0 min 7 W/m 6,3 km/h (2 Bft) 95,74 %
24.06.2016 05:26 19,3 C 18,9 C 17,8 C 98 % 15 lf 1015,3 hPa 0,0 l/m 0 min 0 min 7 W/m 6,3 km/h (2 Bft) 97,87 %
24.06.2016 05:28 19,3 C 18,9 C 17,8 C 98 % 15 lf 1015,4 hPa 0,0 l/m 0 min 0 min 8 W/m 6,3 km/h (2 Bft) 93,62 %
24.06.2016 05:30 19,3 C 18,9 C 17,8 C 98 % 15 lf 1015,4 hPa 0,0 l/m 0 min 0 min 9 W/m 2,1 km/h (1 Bft) 95,65 %
24.06.2016 05:32 19,3 C 18,9 C 17,8 C 98 % 15 lf 1015,4 hPa 0,0 l/m 0 min 0 min 10 W/m 4,2 km/h (1 Bft) 97,87 %
24.06.2016 05:34 19,3 C 18,9 C 17,8 C 98 % 15 lf 1015,4 hPa 0,0 l/m 0 min 0 min 11 W/m 0,0 km/h (0 Bft) 100,00 %
24.06.2016 05:36 19,3 C 18,9 C 17,8 C 98 % 15 lf 1015,5 hPa 0,0 l/m 0 min 0 min 12 W/m 2,1 km/h (1 Bft) 100,00 %
24.06.2016 05:38 19,3 C 18,9 C 17,8 C 98 % 15 lf 1015,6 hPa 0,0 l/m 0 min 0 min 13 W/m 2,1 km/h (1 Bft) 95,74 %
24.06.2016 05:40 19,3 C 18,9 C 17,8 C 98 % 15 lf 1015,7 hPa 0,0 l/m 0 min 0 min 14 W/m 2,1 km/h (1 Bft) 100,00 %
24.06.2016 05:42 19,3 C 18,9 C 17,8 C 98 % 15 lf 1015,7 hPa 0,0 l/m 0 min 0 min 13 W/m 2,1 km/h (1 Bft) 100,00 %
24.06.2016 05:44 19,3 C 18,9 C 17,8 C 98 % 15 lf 1015,6 hPa 0,0 l/m 0 min 0 min 13 W/m 2,1 km/h (1 Bft) 100,00 %
24.06.2016 05:46 19,3 C 18,9 C 17,8 C 98 % 15 lf 1015,5 hPa 0,0 l/m 0 min 0 min 14 W/m 2,1 km/h (1 Bft) 100,00 %
24.06.2016 05:48 19,3 C 18,9 C 17,8 C 98 % 15 lf 1015,5 hPa 0,0 l/m 0 min 0 min 15 W/m 0,0 km/h (0 Bft) 100,00 %
24.06.2016 05:50 19,3 C 18,9 C 17,8 C 98 % 15 lf 1015,6 hPa 0,0 l/m 0 min 0 min 16 W/m 0,0 km/h (0 Bft) 97,87 %
24.06.2016 05:52 19,3 C 18,9 C 17,8 C 98 % 15 lf 1015,7 hPa 0,0 l/m 0 min 2 min 18 W/m 2,1 km/h (1 Bft) 97,87 %
24.06.2016 05:54 19,3 C 18,9 C 17,8 C 98 % 15 lf 1015,7 hPa 0,0 l/m 0 min 2 min 17 W/m 0,0 km/h (0 Bft) 97,83 %
24.06.2016 05:56 19,3 C 18,9 C 17,8 C 98 % 15 lf 1015,7 hPa 0,0 l/m 0 min 2 min 16 W/m 0,0 km/h (0 Bft) 97,87 %
24.06.2016 05:58 19,3 C 18,9 C 18,3 C 98 % 15 lf 1015,6 hPa 0,0 l/m 0 min 2 min 19 W/m 2,1 km/h (1 Bft) 100,00 %
24.06.2016 06:00 19,3 C 18,9 C 18,3 C 98 % 15 lf 1015,5 hPa 0,0 l/m 0 min 0 min 21 W/m 0,0 km/h (0 Bft) 100,00 %
24.06.2016 06:02 19,4 C 18,9 C 18,3 C 99 % 15 lf 1015,5 hPa 0,2 l/m 0 min 2 min 26 W/m 0,0 km/h (0 Bft) 95,74 %
24.06.2016 06:04 19,4 C 19,4 C 18,3 C 99 % 15 lf 1015,6 hPa 0,0 l/m 0 min 2 min 35 W/m 2,1 km/h (1 Bft) 97,87 %
24.06.2016 06:06 19,4 C 19,4 C 18,3 C 99 % 15 lf 1015,7 hPa 0,0 l/m 0 min 2 min 33 W/m 4,2 km/h (1 Bft) 97,83 %
24.06.2016 06:08 19,4 C 19,4 C 18,3 C 99 % 15 lf 1016,2 hPa 0,0 l/m 0 min 2 min 23 W/m 10,5 km/h (2 Bft) 95,74 %
24.06.2016 06:10 19,4 C 19,4 C 18,3 C 99 % 15 lf 1016,9 hPa 0,0 l/m 0 min 2 min 14 W/m 23,0 km/h (4 Bft) 95,74 %
24.06.2016 06:12 19,5 C 18,9 C 18,3 C 98 % 15 lf 1017,0 hPa 0,2 l/m 0 min 2 min 4 W/m 23,0 km/h (4 Bft) 97,87 %
24.06.2016 06:14 19,5 C 18,9 C 18,3 C 98 % 15 lf 1017,0 hPa 0,0 l/m 0 min 2 min 4 W/m 23,0 km/h (4 Bft) 97,87 %
24.06.2016 06:16 19,5 C 18,9 C 17,8 C 98 % 15 lf 1016,3 hPa 0,2 l/m 0 min 2 min 12 W/m 18,8 km/h (3 Bft) 97,83 %
24.06.2016 06:18 19,5 C 18,9 C 17,8 C 98 % 15 lf 1015,6 hPa 0,0 l/m 0 min 2 min 16 W/m 18,8 km/h (3 Bft) 97,87 %
24.06.2016 06:20 19,5 C 18,9 C 17,8 C 98 % 15 lf 1015,6 hPa 0,0 l/m 0 min 2 min 18 W/m 12,6 km/h (3 Bft) 97,87 %
24.06.2016 06:22 19,5 C 18,9 C 17,8 C 98 % 15 lf 1015,7 hPa 0,2 l/m 0 min 2 min 19 W/m 12,6 km/h (3 Bft) 97,87 %
24.06.2016 06:24 19,5 C 18,9 C 17,8 C 99 % 15 lf 1015,6 hPa 0,0 l/m 0 min 2 min 21 W/m 8,4 km/h (2 Bft) 97,87 %
24.06.2016 06:26 19,5 C 18,9 C 17,8 C 99 % 15 lf 1015,4 hPa 0,0 l/m 0 min 2 min 23 W/m 10,5 km/h (2 Bft) 97,87 %
24.06.2016 06:28 19,5 C 19,4 C 18,3 C 99 % 15 lf 1015,2 hPa 0,0 l/m 0 min 2 min 25 W/m 14,6 km/h (3 Bft) 95,65 %
24.06.2016 06:30 19,5 C 19,4 C 18,3 C 99 % 15 lf 1015,1 hPa 0,0 l/m 0 min 0 min 28 W/m 10,5 km/h (2 Bft) 95,74 %
24.06.2016 06:32 19,5 C 19,4 C 18,3 C 99 % 15 lf 1015,1 hPa 0,0 l/m 0 min 0 min 28 W/m 8,4 km/h (2 Bft) 97,87 %
24.06.2016 06:34 19,5 C 19,4 C 18,3 C 99 % 15 lf 1015,2 hPa 0,0 l/m 0 min 0 min 27 W/m 12,6 km/h (3 Bft) 95,74 %
24.06.2016 06:36 19,6 C 19,4 C 18,3 C 99 % 15 lf 1015,4 hPa 0,0 l/m 0 min 2 min 26 W/m 6,3 km/h (2 Bft) 95,74 %
24.06.2016 06:38 19,5 C 19,4 C 18,3 C 99 % 15 lf 1015,4 hPa 0,0 l/m 0 min 2 min 26 W/m 8,4 km/h (2 Bft) 97,87 %
24.06.2016 06:40 19,6 C 19,4 C 18,3 C 99 % 15 lf 1015,6 hPa 0,0 l/m 0 min 2 min 28 W/m 8,4 km/h (2 Bft) 97,83 %
24.06.2016 06:42 19,6 C 19,4 C 18,3 C 99 % 15 lf 1015,7 hPa 0,0 l/m 0 min 2 min 31 W/m 14,6 km/h (3 Bft) 97,87 %
24.06.2016 06:44 19,6 C 19,4 C 18,3 C 99 % 15 lf 1015,8 hPa 0,0 l/m 0 min 2 min 32 W/m 12,6 km/h (3 Bft) 93,62 %
24.06.2016 06:46 19,6 C 19,4 C 18,3 C 99 % 15 lf 1015,9 hPa 0,0 l/m 0 min 2 min 28 W/m 12,6 km/h (3 Bft) 97,87 %
24.06.2016 06:48 19,6 C 19,4 C 18,3 C 99 % 15 lf 1015,9 hPa 0,0 l/m 0 min 2 min 30 W/m 10,5 km/h (2 Bft) 93,62 %
24.06.2016 06:50 19,6 C 19,4 C 18,3 C 99 % 15 lf 1015,9 hPa 0,0 l/m 0 min 2 min 32 W/m 12,6 km/h (3 Bft) 97,87 %
24.06.2016 06:52 19,6 C 19,4 C 18,3 C 99 % 15 lf 1016,0 hPa 0,0 l/m 0 min 0 min 33 W/m 10,5 km/h (2 Bft) 97,83 %
24.06.2016 06:54 19,6 C 19,4 C 18,3 C 99 % 15 lf 1016,1 hPa 0,0 l/m 0 min 0 min 30 W/m 12,6 km/h (3 Bft) 97,87 %
24.06.2016 06:56 19,6 C 19,4 C 18,3 C 99 % 15 lf 1016,1 hPa 0,0 l/m 0 min 0 min 20 W/m 10,5 km/h (2 Bft) 97,87 %
24.06.2016 06:58 19,6 C 19,4 C 18,3 C 99 % 15 lf 1015,8 hPa 0,0 l/m 0 min 0 min 17 W/m 16,7 km/h (3 Bft) 97,87 %
24.06.2016 07:00 19,6 C 19,4 C 18,3 C 99 % 15 lf 1015,8 hPa 0,0 l/m 0 min 2 min 14 W/m 14,6 km/h (3 Bft) 93,62 %
24.06.2016 07:02 19,6 C 19,4 C 18,3 C 99 % 15 lf 1015,7 hPa 0,0 l/m 0 min 2 min 14 W/m 18,8 km/h (3 Bft) 95,74 %
24.06.2016 07:04 19,6 C 19,4 C 18,3 C 99 % 15 lf 1015,6 hPa 0,0 l/m 0 min 2 min 13 W/m 16,7 km/h (3 Bft) 95,65 %
24.06.2016 07:06 19,6 C 19,4 C 18,3 C 99 % 15 lf 1015,1 hPa 0,2 l/m 0 min 2 min 11 W/m 14,6 km/h (3 Bft) 95,74 %
24.06.2016 07:08 19,6 C 19,4 C 18,3 C 99 % 15 lf 1014,8 hPa 0,2 l/m 0 min 2 min 11 W/m 16,7 km/h (3 Bft) 100,00 %
24.06.2016 07:10 19,6 C 19,4 C 18,3 C 99 % 15 lf 1014,4 hPa 0,0 l/m 0 min 2 min 12 W/m 18,8 km/h (3 Bft) 95,74 %
24.06.2016 07:12 19,6 C 19,4 C 18,3 C 99 % 15 lf 1014,5 hPa 0,0 l/m 0 min 2 min 15 W/m 18,8 km/h (3 Bft) 97,87 %
24.06.2016 07:14 19,6 C 19,4 C 18,3 C 99 % 15 lf 1015,0 hPa 0,2 l/m 0 min 2 min 20 W/m 10,5 km/h (2 Bft) 97,87 %
24.06.2016 07:16 19,6 C 19,4 C 18,3 C 99 % 15 lf 1015,4 hPa 0,0 l/m 0 min 2 min 25 W/m 8,4 km/h (2 Bft) 93,48 %
24.06.2016 07:18 19,6 C 19,4 C 18,3 C 99 % 15 lf 1015,4 hPa 0,0 l/m 0 min 0 min 33 W/m 8,4 km/h (2 Bft) 91,49 %
24.06.2016 07:20 19,6 C 19,4 C 18,3 C 99 % 15 lf 1015,3 hPa 0,0 l/m 0 min 0 min 40 W/m 8,4 km/h (2 Bft) 93,62 %
24.06.2016 07:22 19,6 C 19,4 C 18,3 C 99 % 15 lf 1015,1 hPa 0,0 l/m 0 min 0 min 40 W/m 8,4 km/h (2 Bft) 97,87 %
24.06.2016 07:24 19,6 C 19,4 C 18,3 C 99 % 15 lf 1014,8 hPa 0,0 l/m 0 min 0 min 40 W/m 8,4 km/h (2 Bft) 95,74 %
24.06.2016 07:26 19,6 C 19,4 C 18,3 C 99 % 15 lf 1014,8 hPa 0,0 l/m 0 min 0 min 39 W/m 6,3 km/h (2 Bft) 95,74 %
24.06.2016 07:28 19,6 C 19,4 C 18,3 C 99 % 15 lf 1014,8 hPa 0,0 l/m 0 min 0 min 41 W/m 2,1 km/h (1 Bft) 95,65 %
24.06.2016 07:30 19,6 C 19,4 C 18,3 C 99 % 15 lf 1014,8 hPa 0,0 l/m 0 min 0 min 44 W/m 4,2 km/h (1 Bft) 91,49 %
24.06.2016 07:32 19,6 C 19,4 C 18,3 C 99 % 15 lf 1014,8 hPa 0,0 l/m 0 min 0 min 52 W/m 4,2 km/h (1 Bft) 95,74 %
24.06.2016 07:34 19,6 C 19,4 C 18,3 C 99 % 15 lf 1014,8 hPa 0,0 l/m 0 min 0 min 58 W/m 4,2 km/h (1 Bft) 95,74 %
24.06.2016 07:36 19,6 C 19,4 C 18,3 C 99 % 15 lf 1014,8 hPa 0,0 l/m 0 min 0 min 65 W/m 2,1 km/h (1 Bft) 93,62 %
24.06.2016 07:38 19,6 C 20,0 C 18,3 C 99 % 15 lf 1014,6 hPa 0,0 l/m 0 min 0 min 72 W/m 2,1 km/h (1 Bft) 100,00 %
24.06.2016 07:40 19,6 C 20,0 C 18,3 C 99 % 15 lf 1014,6 hPa 0,0 l/m 0 min 0 min 79 W/m 2,1 km/h (1 Bft) 93,62 %
24.06.2016 07:42 19,6 C 20,0 C 18,9 C 99 % 15 lf 1014,7 hPa 0,0 l/m 0 min 0 min 85 W/m 2,1 km/h (1 Bft) 97,87 %
24.06.2016 07:44 19,6 C 20,0 C 18,9 C 99 % 15 lf 1014,7 hPa 0,0 l/m 0 min 0 min 86 W/m 2,1 km/h (1 Bft) 93,62 %
24.06.2016 07:46 19,6 C 20,0 C 18,9 C 99 % 15 lf 1014,8 hPa 0,0 l/m 0 min 0 min 88 W/m 4,2 km/h (1 Bft) 95,65 %
24.06.2016 07:48 19,7 C 20,0 C 18,9 C 99 % 15 lf 1014,7 hPa 0,0 l/m 0 min 0 min 90 W/m 4,2 km/h (1 Bft) 97,87 %
24.06.2016 07:50 19,7 C 20,0 C 18,9 C 99 % 15 lf 1014,8 hPa 0,0 l/m 0 min 0 min 101 W/m 6,3 km/h (2 Bft) 95,74 %
24.06.2016 07:52 19,7 C 20,0 C 18,9 C 99 % 15 lf 1014,8 hPa 0,0 l/m 0 min 0 min 111 W/m 4,2 km/h (1 Bft) 95,74 %
24.06.2016 07:54 19,7 C 20,0 C 19,4 C 99 % 15 lf 1014,9 hPa 0,0 l/m 0 min 0 min 116 W/m 4,2 km/h (1 Bft) 95,74 %
24.06.2016 07:56 19,8 C 20,0 C 19,4 C 99 % 15 lf 1014,8 hPa 0,0 l/m 0 min 0 min 116 W/m 4,2 km/h (1 Bft) 95,74 %
24.06.2016 07:58 19,8 C 20,0 C 18,9 C 99 % 15 lf 1014,9 hPa 0,0 l/m 0 min 0 min 108 W/m 4,2 km/h (1 Bft) 91,30 %
24.06.2016 08:00 19,8 C 20,0 C 18,9 C 99 % 15 lf 1014,9 hPa 0,0 l/m 0 min 0 min 102 W/m 4,2 km/h (1 Bft) 97,87 %
24.06.2016 08:02 19,8 C 20,0 C 18,9 C 99 % 15 lf 1015,0 hPa 0,0 l/m 0 min 0 min 99 W/m 6,3 km/h (2 Bft) 95,74 %
24.06.2016 08:04 19,9 C 20,0 C 18,9 C 99 % 15 lf 1015,2 hPa 0,0 l/m 0 min 0 min 99 W/m 6,3 km/h (2 Bft) 97,87 %
24.06.2016 08:06 19,9 C 20,0 C 18,9 C 99 % 15 lf 1015,3 hPa 0,0 l/m 0 min 0 min 94 W/m 6,3 km/h (2 Bft) 95,74 %
24.06.2016 08:08 19,9 C 20,0 C 18,9 C 99 % 15 lf 1015,4 hPa 0,0 l/m 0 min 0 min 85 W/m 8,4 km/h (2 Bft) 95,74 %
24.06.2016 08:10 19,9 C 20,0 C 18,9 C 99 % 15 lf 1015,4 hPa 0,0 l/m 0 min 0 min 81 W/m 8,4 km/h (2 Bft) 95,65 %
24.06.2016 08:12 19,9 C 20,0 C 18,9 C 99 % 15 lf 1015,4 hPa 0,0 l/m 0 min 0 min 81 W/m 8,4 km/h (2 Bft) 95,74 %
24.06.2016 08:14 19,9 C 20,0 C 18,9 C 99 % 15 lf 1015,4 hPa 0,0 l/m 0 min 0 min 82 W/m 8,4 km/h (2 Bft) 97,87 %
24.06.2016 08:16 20,0 C 20,0 C 18,9 C 99 % 15 lf 1015,5 hPa 0,0 l/m 0 min 0 min 87 W/m 10,5 km/h (2 Bft) 95,74 %
24.06.2016 08:18 20,0 C 20,0 C 18,9 C 99 % 15 lf 1015,5 hPa 0,0 l/m 0 min 0 min 102 W/m 10,5 km/h (2 Bft) 95,74 %
24.06.2016 08:20 20,0 C 20,0 C 18,9 C 99 % 15 lf 1015,5 hPa 0,0 l/m 0 min 0 min 114 W/m 6,3 km/h (2 Bft) 97,87 %
24.06.2016 08:22 20,0 C 20,6 C 18,9 C 99 % 15 lf 1015,5 hPa 0,0 l/m 0 min 0 min 113 W/m 6,3 km/h (2 Bft) 97,83 %
24.06.2016 08:24 20,1 C 20,6 C 19,4 C 99 % 15 lf 1015,5 hPa 0,0 l/m 0 min 0 min 182 W/m 6,3 km/h (2 Bft) 95,74 %
24.06.2016 08:26 20,1 C 21,1 C 19,4 C 99 % 15 lf 1015,6 hPa 0,0 l/m 0 min 0 min 141 W/m 6,3 km/h (2 Bft) 95,74 %
24.06.2016 08:28 20,1 C 21,1 C 19,4 C 99 % 15 lf 1015,7 hPa 0,0 l/m 0 min 0 min 132 W/m 8,4 km/h (2 Bft) 93,62 %
24.06.2016 08:30 20,1 C 21,1 C 19,4 C 99 % 15 lf 1015,7 hPa 0,0 l/m 0 min 0 min 132 W/m 8,4 km/h (2 Bft) 97,87 %
24.06.2016 08:32 20,1 C 21,1 C 19,4 C 99 % 15 lf 1015,7 hPa 0,0 l/m 0 min 0 min 117 W/m 12,6 km/h (3 Bft) 95,74 %
24.06.2016 08:34 20,2 C 20,6 C 19,4 C 99 % 15 lf 1015,7 hPa 0,0 l/m 0 min 0 min 101 W/m 12,6 km/h (3 Bft) 97,83 %
24.06.2016 08:36 20,2 C 20,6 C 19,4 C 99 % 15 lf 1015,7 hPa 0,0 l/m 0 min 0 min 96 W/m 6,3 km/h (2 Bft) 97,14 %
24.06.2016 08:38 20,2 C 20,6 C 19,4 C 99 % 15 lf 1015,8 hPa 0,0 l/m 0 min 0 min 99 W/m 8,4 km/h (2 Bft) 97,87 %
24.06.2016 08:40 20,2 C 20,6 C 19,4 C 99 % 15 lf 1015,8 hPa 0,0 l/m 0 min 0 min 105 W/m 6,3 km/h (2 Bft) 93,62 %
24.06.2016 08:42 20,2 C 20,6 C 19,4 C 99 % 15 lf 1015,8 hPa 0,0 l/m 0 min 0 min 99 W/m 6,3 km/h (2 Bft) 97,87 %
24.06.2016 08:44 20,2 C 21,1 C 19,4 C 99 % 15 lf 1015,8 hPa 0,0 l/m 0 min 0 min 133 W/m 8,4 km/h (2 Bft) 95,74 %
24.06.2016 08:46 20,3 C 22,8 C 19,4 C 99 % 15 lf 1015,8 hPa 0,0 l/m 2 min 0 min 362 W/m 8,4 km/h (2 Bft) 95,74 %
24.06.2016 08:48 20,3 C 22,8 C 19,4 C 99 % 15 lf 1015,8 hPa 0,0 l/m 2 min 0 min 413 W/m 6,3 km/h (2 Bft) 95,65 %
24.06.2016 08:50 20,3 C 22,2 C 20,0 C 99 % 15 lf 1015,8 hPa 0,0 l/m 0 min 0 min 210 W/m 4,2 km/h (1 Bft) 95,74 %
24.06.2016 08:52 20,4 C 21,7 C 20,0 C 99 % 15 lf 1015,8 hPa 0,0 l/m 0 min 0 min 152 W/m 10,5 km/h (2 Bft) 95,74 %
24.06.2016 08:54 20,4 C 22,2 C 20,0 C 99 % 15 lf 1015,8 hPa 0,0 l/m 2 min 0 min 268 W/m 6,3 km/h (2 Bft) 100,00 %
24.06.2016 08:56 20,4 C 22,2 C 20,0 C 100 % 15 lf 1015,8 hPa 0,0 l/m 2 min 0 min 379 W/m 10,5 km/h (2 Bft) 95,74 %
24.06.2016 08:58 20,4 C 22,2 C 20,0 C 100 % 15 lf 1015,8 hPa 0,0 l/m 2 min 0 min 311 W/m 8,4 km/h (2 Bft) 97,87 %
24.06.2016 09:00 20,5 C 23,9 C 20,0 C 100 % 15 lf 1015,8 hPa 0,0 l/m 2 min 0 min 352 W/m 6,3 km/h (2 Bft) 93,48 %
24.06.2016 09:02 20,6 C 23,3 C 20,0 C 100 % 15 lf 1015,7 hPa 0,0 l/m 2 min 0 min 506 W/m 8,4 km/h (2 Bft) 91,49 %
24.06.2016 09:04 20,6 C 22,8 C 20,0 C 100 % 15 lf 1015,7 hPa 0,0 l/m 0 min 0 min 166 W/m 4,2 km/h (1 Bft) 95,74 %
24.06.2016 09:06 20,6 C 23,3 C 20,0 C 100 % 15 lf 1015,7 hPa 0,0 l/m 0 min 0 min 218 W/m 6,3 km/h (2 Bft) 95,74 %
24.06.2016 09:08 20,6 C 23,9 C 20,0 C 99 % 15 lf 1015,7 hPa 0,0 l/m 2 min 0 min 512 W/m 6,3 km/h (2 Bft) 95,74 %
24.06.2016 09:10 20,7 C 26,1 C 20,0 C 99 % 15 lf 1015,7 hPa 0,0 l/m 2 min 0 min 506 W/m 4,2 km/h (1 Bft) 91,49 %
24.06.2016 09:12 20,8 C 26,1 C 20,0 C 99 % 15 lf 1015,6 hPa 0,0 l/m 2 min 0 min 510 W/m 2,1 km/h (1 Bft) 93,48 %
24.06.2016 09:14 20,8 C 26,1 C 20,0 C 100 % 15 lf 1015,6 hPa 0,0 l/m 2 min 0 min 514 W/m 6,3 km/h (2 Bft) 95,74 %
24.06.2016 09:16 20,9 C 26,7 C 20,0 C 100 % 15 lf 1015,6 hPa 0,0 l/m 2 min 0 min 528 W/m 6,3 km/h (2 Bft) 95,74 %
24.06.2016 09:18 20,9 C 27,2 C 20,6 C 100 % 13 lf 1015,6 hPa 0,0 l/m 2 min 0 min 541 W/m 8,4 km/h (2 Bft) 85,11 %
24.06.2016 09:20 21,0 C 25,6 C 20,6 C 100 % 12 lf 1015,6 hPa 0,0 l/m 2 min 0 min 543 W/m 10,5 km/h (2 Bft) 93,62 %
24.06.2016 09:22 21,1 C 25,0 C 20,6 C 100 % 10 lf 1015,6 hPa 0,0 l/m 2 min 0 min 556 W/m 10,5 km/h (2 Bft) 95,74 %
24.06.2016 09:24 21,2 C 25,0 C 20,6 C 100 % 7 lf 1015,6 hPa 0,0 l/m 2 min 0 min 571 W/m 10,5 km/h (2 Bft) 93,48 %
24.06.2016 09:26 21,2 C 25,6 C 20,6 C 100 % 4 lf 1015,7 hPa 0,0 l/m 2 min 0 min 565 W/m 6,3 km/h (2 Bft) 93,62 %
24.06.2016 09:28 21,3 C 26,1 C 20,6 C 100 % 3 lf 1015,7 hPa 0,0 l/m 2 min 0 min 578 W/m 6,3 km/h (2 Bft) 93,62 %
24.06.2016 09:30 21,4 C 26,7 C 21,1 C 100 % 2 lf 1015,6 hPa 0,0 l/m 2 min 0 min 578 W/m 8,4 km/h (2 Bft) 95,74 %
24.06.2016 09:32 21,4 C 26,1 C 21,1 C 100 % 1 lf 1015,7 hPa 0,0 l/m 2 min 0 min 532 W/m 10,5 km/h (2 Bft) 97,87 %
24.06.2016 09:34 21,5 C 26,1 C 21,1 C 100 % 1 lf 1015,7 hPa 0,0 l/m 2 min 0 min 542 W/m 8,4 km/h (2 Bft) 97,87 %
24.06.2016 09:36 21,6 C 27,2 C 21,1 C 100 % 1 lf 1015,7 hPa 0,0 l/m 2 min 0 min 595 W/m 8,4 km/h (2 Bft) 97,83 %
24.06.2016 09:38 21,7 C 27,2 C 21,1 C 100 % 0 lf 1015,6 hPa 0,0 l/m 2 min 0 min 616 W/m 6,3 km/h (2 Bft) 97,87 %
24.06.2016 09:40 21,8 C 28,3 C 21,7 C 100 % 0 lf 1015,6 hPa 0,0 l/m 2 min 0 min 627 W/m 4,2 km/h (1 Bft) 95,74 %
24.06.2016 09:42 21,9 C 31,1 C 21,7 C 100 % 0 lf 1015,6 hPa 0,0 l/m 2 min 0 min 652 W/m 8,4 km/h (2 Bft) 93,62 %
24.06.2016 09:44 22,0 C 31,1 C 21,7 C 100 % 0 lf 1015,6 hPa 0,0 l/m 2 min 0 min 671 W/m 8,4 km/h (2 Bft) 97,87 %
24.06.2016 09:46 22,0 C 31,7 C 22,2 C 100 % 0 lf 1015,6 hPa 0,0 l/m 2 min 0 min 693 W/m 14,6 km/h (3 Bft) 97,83 %
24.06.2016 09:48 22,1 C 30,0 C 22,2 C 100 % 0 lf 1015,6 hPa 0,0 l/m 2 min 0 min 724 W/m 12,6 km/h (3 Bft) 95,74 %
24.06.2016 09:50 22,1 C 30,6 C 22,2 C 100 % 0 lf 1015,6 hPa 0,0 l/m 2 min 0 min 684 W/m 8,4 km/h (2 Bft) 95,74 %
24.06.2016 09:52 22,1 C 30,0 C 22,2 C 100 % 0 lf 1015,7 hPa 0,0 l/m 2 min 0 min 577 W/m 12,6 km/h (3 Bft) 95,74 %
24.06.2016 09:54 22,2 C 28,9 C 21,7 C 100 % 0 lf 1015,7 hPa 0,0 l/m 0 min 0 min 237 W/m 10,5 km/h (2 Bft) 97,87 %
24.06.2016 09:56 22,2 C 28,9 C 22,2 C 100 % 0 lf 1015,8 hPa 0,0 l/m 2 min 0 min 317 W/m 10,5 km/h (2 Bft) 91,49 %
24.06.2016 09:58 22,2 C 28,3 C 22,8 C 100 % 0 lf 1015,8 hPa 0,0 l/m 2 min 0 min 323 W/m 16,7 km/h (3 Bft) 97,83 %
24.06.2016 10:00 22,2 C 27,2 C 22,8 C 99 % 0 lf 1015,8 hPa 0,0 l/m 2 min 0 min 356 W/m 8,4 km/h (2 Bft) 93,62 %
24.06.2016 10:02 22,2 C 27,2 C 22,8 C 99 % 0 lf 1015,7 hPa 0,0 l/m 2 min 0 min 335 W/m 10,5 km/h (2 Bft) 95,74 %
24.06.2016 10:04 22,2 C 26,7 C 22,8 C 99 % 0 lf 1015,7 hPa 0,0 l/m 0 min 0 min 296 W/m 14,6 km/h (3 Bft) 93,62 %
24.06.2016 10:06 22,3 C 26,7 C 22,8 C 99 % 0 lf 1015,7 hPa 0,0 l/m 0 min 0 min 255 W/m 4,2 km/h (1 Bft) 95,74 %
24.06.2016 10:08 22,3 C 27,2 C 23,3 C 99 % 0 lf 1015,7 hPa 0,0 l/m 0 min 0 min 270 W/m 12,6 km/h (3 Bft) 93,62 %
24.06.2016 10:10 22,4 C 28,3 C 24,4 C 99 % 0 lf 1015,7 hPa 0,0 l/m 2 min 0 min 574 W/m 14,6 km/h (3 Bft) 100,00 %
24.06.2016 10:12 22,4 C 31,1 C 25,6 C 99 % 0 lf 1015,7 hPa 0,0 l/m 2 min 0 min 816 W/m 10,5 km/h (2 Bft) 97,83 %
24.06.2016 10:14 22,5 C 30,0 C 24,4 C 99 % 0 lf 1015,8 hPa 0,0 l/m 2 min 0 min 688 W/m 18,8 km/h (3 Bft) 97,87 %
24.06.2016 10:16 22,6 C 27,2 C 23,3 C 98 % 0 lf 1015,8 hPa 0,0 l/m 0 min 0 min 174 W/m 10,5 km/h (2 Bft) 97,87 %
24.06.2016 10:18 22,6 C 26,7 C 22,8 C 98 % 0 lf 1015,8 hPa 0,0 l/m 0 min 0 min 159 W/m 16,7 km/h (3 Bft) 95,74 %
24.06.2016 10:20 22,6 C 25,6 C 22,2 C 98 % 0 lf 1015,8 hPa 0,0 l/m 0 min 0 min 164 W/m 10,5 km/h (2 Bft) 97,87 %
24.06.2016 10:22 22,7 C 25,6 C 22,2 C 97 % 0 lf 1015,8 hPa 0,0 l/m 0 min 0 min 179 W/m 12,6 km/h (3 Bft) 95,65 %
24.06.2016 10:24 22,7 C 25,0 C 22,2 C 97 % 0 lf 1015,9 hPa 0,0 l/m 0 min 0 min 185 W/m 14,6 km/h (3 Bft) 97,87 %
24.06.2016 10:26 22,7 C 25,0 C 22,2 C 97 % 0 lf 1015,9 hPa 0,0 l/m 0 min 0 min 163 W/m 12,6 km/h (3 Bft) 95,74 %
24.06.2016 10:28 22,7 C 24,4 C 21,7 C 96 % 0 lf 1015,9 hPa 0,0 l/m 0 min 0 min 141 W/m 10,5 km/h (2 Bft) 97,87 %
24.06.2016 10:30 22,7 C 23,9 C 21,7 C 96 % 0 lf 1016,0 hPa 0,0 l/m 0 min 0 min 150 W/m 10,5 km/h (2 Bft) 95,74 %
24.06.2016 10:32 22,7 C 24,4 C 21,7 C 95 % 0 lf 1015,9 hPa 0,0 l/m 0 min 0 min 166 W/m 12,6 km/h (3 Bft) 97,87 %
24.06.2016 10:34 22,7 C 24,4 C 22,2 C 95 % 0 lf 1016,0 hPa 0,0 l/m 0 min 0 min 227 W/m 10,5 km/h (2 Bft) 97,83 %
24.06.2016 10:36 22,7 C 25,0 C 22,2 C 94 % 0 lf 1016,0 hPa 0,0 l/m 0 min 0 min 306 W/m 10,5 km/h (2 Bft) 96,36 %
24.06.2016 10:38 22,7 C 25,6 C 22,8 C 94 % 0 lf 1016,0 hPa 0,0 l/m 0 min 0 min 317 W/m 8,4 km/h (2 Bft) 97,87 %
24.06.2016 10:40 22,8 C 26,7 C 23,3 C 94 % 0 lf 1016,1 hPa 0,0 l/m 2 min 0 min 374 W/m 12,6 km/h (3 Bft) 97,87 %
24.06.2016 10:42 22,8 C 27,8 C 23,9 C 94 % 0 lf 1016,0 hPa 0,0 l/m 2 min 0 min 371 W/m 10,5 km/h (2 Bft) 95,74 %
24.06.2016 10:44 22,9 C 29,4 C 25,0 C 94 % 0 lf 1016,0 hPa 0,0 l/m 2 min 0 min 399 W/m 6,3 km/h (2 Bft) 97,87 %
24.06.2016 10:46 22,9 C 30,6 C 26,1 C 94 % 0 lf 1016,1 hPa 0,0 l/m 2 min 0 min 691 W/m 4,2 km/h (1 Bft) 100,00 %
24.06.2016 10:48 23,1 C 30,6 C 26,1 C 94 % 0 lf 1016,1 hPa 0,0 l/m 2 min 0 min 673 W/m 8,4 km/h (2 Bft) 95,74 %
24.06.2016 10:50 23,2 C 32,2 C 27,2 C 93 % 0 lf 1016,2 hPa 0,0 l/m 2 min 0 min 673 W/m 12,6 km/h (3 Bft) 100,00 %
24.06.2016 10:52 23,3 C 32,8 C 27,2 C 93 % 0 lf 1016,2 hPa 0,0 l/m 2 min 0 min 772 W/m 8,4 km/h (2 Bft) 97,87 %
24.06.2016 10:54 23,4 C 30,0 C 26,1 C 92 % 0 lf 1016,2 hPa 0,0 l/m 2 min 0 min 766 W/m 12,6 km/h (3 Bft) 100,00 %
24.06.2016 10:56 23,4 C 29,4 C 25,0 C 92 % 0 lf 1016,3 hPa 0,0 l/m 0 min 0 min 285 W/m 18,8 km/h (3 Bft) 100,00 %
24.06.2016 10:58 23,5 C 27,8 C 23,9 C 91 % 0 lf 1016,3 hPa 0,0 l/m 0 min 0 min 200 W/m 20,9 km/h (4 Bft) 97,83 %
24.06.2016 11:00 23,6 C 26,7 C 23,3 C 90 % 0 lf 1016,3 hPa 0,0 l/m 0 min 0 min 195 W/m 16,7 km/h (3 Bft) 95,74 %
24.06.2016 11:02 23,6 C 26,1 C 23,3 C 89 % 0 lf 1016,4 hPa 0,0 l/m 0 min 0 min 228 W/m 14,6 km/h (3 Bft) 95,74 %
24.06.2016 11:04 23,6 C 26,1 C 23,3 C 89 % 0 lf 1016,4 hPa 0,0 l/m 0 min 0 min 257 W/m 10,5 km/h (2 Bft) 97,87 %
24.06.2016 11:06 23,6 C 27,2 C 24,4 C 89 % 0 lf 1016,4 hPa 0,0 l/m 0 min 0 min 299 W/m 6,3 km/h (2 Bft) 97,87 %
24.06.2016 11:08 23,7 C 28,9 C 25,0 C 89 % 0 lf 1016,4 hPa 0,0 l/m 2 min 0 min 653 W/m 4,2 km/h (1 Bft) 95,74 %
24.06.2016 11:10 23,7 C 28,3 C 25,0 C 88 % 0 lf 1016,4 hPa 0,0 l/m 0 min 0 min 322 W/m 6,3 km/h (2 Bft) 97,83 %
24.06.2016 11:12 23,8 C 28,9 C 25,6 C 89 % 0 lf 1016,3 hPa 0,0 l/m 2 min 0 min 428 W/m 8,4 km/h (2 Bft) 97,87 %
24.06.2016 11:14 23,9 C 28,9 C 25,0 C 89 % 0 lf 1016,4 hPa 0,0 l/m 0 min 0 min 371 W/m 10,5 km/h (2 Bft) 95,74 %
24.06.2016 11:16 23,9 C 28,9 C 25,0 C 88 % 0 lf 1016,4 hPa 0,0 l/m 0 min 0 min 293 W/m 6,3 km/h (2 Bft) 87,23 %
24.06.2016 11:18 23,9 C 28,3 C 25,0 C 88 % 0 lf 1016,4 hPa 0,0 l/m 0 min 0 min 290 W/m 10,5 km/h (2 Bft) 95,74 %
24.06.2016 11:20 24,0 C 27,2 C 24,4 C 88 % 0 lf 1016,4 hPa 0,0 l/m 0 min 0 min 333 W/m 14,6 km/h (3 Bft) 95,74 %
24.06.2016 11:22 24,0 C 26,7 C 23,9 C 87 % 0 lf 1016,5 hPa 0,0 l/m 0 min 0 min 162 W/m 10,5 km/h (2 Bft) 93,48 %
24.06.2016 11:24 24,0 C 26,1 C 23,9 C 87 % 0 lf 1016,5 hPa 0,0 l/m 0 min 0 min 156 W/m 8,4 km/h (2 Bft) 95,74 %
24.06.2016 11:26 24,0 C 26,1 C 23,9 C 87 % 0 lf 1016,5 hPa 0,0 l/m 0 min 0 min 180 W/m 10,5 km/h (2 Bft) 93,62 %
24.06.2016 11:28 24,1 C 26,1 C 23,9 C 87 % 0 lf 1016,5 hPa 0,0 l/m 0 min 0 min 210 W/m 10,5 km/h (2 Bft) 95,74 %
24.06.2016 11:30 24,0 C 26,1 C 23,9 C 87 % 0 lf 1016,5 hPa 0,0 l/m 0 min 0 min 245 W/m 8,4 km/h (2 Bft) 91,49 %
24.06.2016 11:32 24,1 C 26,1 C 24,4 C 87 % 0 lf 1016,6 hPa 0,0 l/m 0 min 0 min 306 W/m 8,4 km/h (2 Bft) 95,74 %
24.06.2016 11:34 24,1 C 27,2 C 25,6 C 87 % 0 lf 1016,5 hPa 0,0 l/m 0 min 0 min 359 W/m 6,3 km/h (2 Bft) 93,48 %
24.06.2016 11:36 24,1 C 26,7 C 25,6 C 87 % 0 lf 1016,5 hPa 0,0 l/m 0 min 0 min 312 W/m 8,4 km/h (2 Bft) 98,00 %
24.06.2016 11:38 24,1 C 26,7 C 25,6 C 87 % 0 lf 1016,5 hPa 0,0 l/m 0 min 0 min 257 W/m 6,3 km/h (2 Bft) 95,74 %
24.06.2016 11:40 24,1 C 26,1 C 25,0 C 87 % 0 lf 1016,6 hPa 0,0 l/m 0 min 0 min 220 W/m 4,2 km/h (1 Bft) 97,87 %
24.06.2016 11:42 24,1 C 26,1 C 24,4 C 87 % 0 lf 1016,6 hPa 0,0 l/m 0 min 0 min 210 W/m 8,4 km/h (2 Bft) 97,87 %
24.06.2016 11:44 24,1 C 26,7 C 25,0 C 87 % 0 lf 1016,6 hPa 0,0 l/m 0 min 0 min 242 W/m 8,4 km/h (2 Bft) 97,87 %
24.06.2016 11:46 24,1 C 26,1 C 25,0 C 86 % 0 lf 1016,6 hPa 0,0 l/m 0 min 0 min 309 W/m 10,5 km/h (2 Bft) 97,83 %
24.06.2016 11:48 24,1 C 26,1 C 25,6 C 86 % 0 lf 1016,6 hPa 0,0 l/m 0 min 0 min 330 W/m 8,4 km/h (2 Bft) 95,74 %
24.06.2016 11:50 24,1 C 26,7 C 25,6 C 86 % 0 lf 1016,6 hPa 0,0 l/m 0 min 0 min 297 W/m 10,5 km/h (2 Bft) 95,74 %
24.06.2016 11:52 24,2 C 26,1 C 25,6 C 85 % 0 lf 1016,6 hPa 0,0 l/m 0 min 0 min 277 W/m 10,5 km/h (2 Bft) 97,87 %
24.06.2016 11:54 24,2 C 26,7 C 25,6 C 86 % 0 lf 1016,5 hPa 0,0 l/m 0 min 0 min 288 W/m 6,3 km/h (2 Bft) 95,74 %
24.06.2016 11:56 24,2 C 26,7 C 25,6 C 86 % 0 lf 1016,5 hPa 0,0 l/m 0 min 0 min 321 W/m 12,6 km/h (3 Bft) 95,65 %
24.06.2016 11:58 24,2 C 26,7 C 25,6 C 85 % 0 lf 1016,5 hPa 0,0 l/m 0 min 0 min 315 W/m 10,5 km/h (2 Bft) 95,74 %
24.06.2016 12:00 24,3 C 26,7 C 25,6 C 86 % 0 lf 1016,5 hPa 0,0 l/m 0 min 0 min 314 W/m 12,6 km/h (3 Bft) 95,74 %
24.06.2016 12:02 24,3 C 26,7 C 26,1 C 86 % 0 lf 1016,4 hPa 0,0 l/m 0 min 0 min 354 W/m 14,6 km/h (3 Bft) 95,74 %
24.06.2016 12:04 24,4 C 27,2 C 26,1 C 86 % 0 lf 1016,5 hPa 0,0 l/m 0 min 0 min 380 W/m 14,6 km/h (3 Bft) 95,74 %
24.06.2016 12:06 24,4 C 26,7 C 25,6 C 85 % 0 lf 1016,5 hPa 0,0 l/m 0 min 0 min 223 W/m 20,9 km/h (4 Bft) 93,62 %
24.06.2016 12:08 24,3 C 26,1 C 25,0 C 85 % 0 lf 1016,5 hPa 0,0 l/m 0 min 0 min 208 W/m 16,7 km/h (3 Bft) 93,62 %
24.06.2016 12:10 24,3 C 25,6 C 24,4 C 84 % 0 lf 1016,5 hPa 0,0 l/m 0 min 0 min 215 W/m 10,5 km/h (2 Bft) 95,74 %
24.06.2016 12:12 24,3 C 25,6 C 24,4 C 84 % 0 lf 1016,7 hPa 0,0 l/m 0 min 0 min 220 W/m 14,6 km/h (3 Bft) 100,00 %
24.06.2016 12:14 24,3 C 26,1 C 25,0 C 84 % 0 lf 1016,7 hPa 0,0 l/m 0 min 0 min 237 W/m 10,5 km/h (2 Bft) 100,00 %
24.06.2016 12:16 24,3 C 26,1 C 25,0 C 85 % 0 lf 1016,6 hPa 0,0 l/m 0 min 0 min 270 W/m 8,4 km/h (2 Bft) 100,00 %
24.06.2016 12:18 24,4 C 26,7 C 25,6 C 85 % 0 lf 1016,6 hPa 0,0 l/m 0 min 0 min 319 W/m 8,4 km/h (2 Bft) 97,87 %
24.06.2016 12:20 24,4 C 27,2 C 26,1 C 86 % 0 lf 1016,6 hPa 0,0 l/m 0 min 0 min 365 W/m 4,2 km/h (1 Bft) 97,87 %
24.06.2016 12:22 24,4 C 27,2 C 26,1 C 86 % 0 lf 1016,7 hPa 0,0 l/m 0 min 0 min 399 W/m 12,6 km/h (3 Bft) 97,87 %
24.06.2016 12:24 24,4 C 28,3 C 26,7 C 86 % 0 lf 1016,7 hPa 0,0 l/m 0 min 0 min 404 W/m 10,5 km/h (2 Bft) 97,87 %
24.06.2016 12:26 24,4 C 28,3 C 26,7 C 85 % 0 lf 1016,7 hPa 0,0 l/m 0 min 0 min 374 W/m 10,5 km/h (2 Bft) 95,74 %
24.06.2016 12:28 24,4 C 27,8 C 26,7 C 86 % 0 lf 1016,7 hPa 0,0 l/m 0 min 0 min 337 W/m 10,5 km/h (2 Bft) 97,83 %
24.06.2016 12:30 24,4 C 27,2 C 26,7 C 85 % 0 lf 1016,7 hPa 0,0 l/m 0 min 0 min 335 W/m 10,5 km/h (2 Bft) 97,87 %
24.06.2016 12:32 24,5 C 27,2 C 26,7 C 85 % 0 lf 1016,7 hPa 0,0 l/m 0 min 0 min 335 W/m 14,6 km/h (3 Bft) 97,87 %
24.06.2016 12:34 24,5 C 27,2 C 26,7 C 85 % 0 lf 1016,6 hPa 0,0 l/m 0 min 0 min 338 W/m 8,4 km/h (2 Bft) 100,00 %
24.06.2016 12:36 24,6 C 27,8 C 26,1 C 85 % 0 lf 1016,6 hPa 0,0 l/m 0 min 0 min 347 W/m 14,6 km/h (3 Bft) 85,71 %
24.06.2016 12:38 24,6 C 27,8 C 26,1 C 85 % 0 lf 1016,6 hPa 0,0 l/m 0 min 0 min 338 W/m 12,6 km/h (3 Bft) 97,87 %
24.06.2016 12:40 24,6 C 27,8 C 26,1 C 85 % 0 lf 1016,7 hPa 0,0 l/m 0 min 0 min 329 W/m 14,6 km/h (3 Bft) 93,62 %
24.06.2016 12:42 24,6 C 27,8 C 26,1 C 85 % 0 lf 1016,6 hPa 0,0 l/m 0 min 0 min 305 W/m 10,5 km/h (2 Bft) 95,65 %
24.06.2016 12:44 24,7 C 27,2 C 26,7 C 85 % 0 lf 1016,6 hPa 0,0 l/m 0 min 0 min 331 W/m 14,6 km/h (3 Bft) 95,74 %
24.06.2016 12:46 24,7 C 27,8 C 26,7 C 85 % 0 lf 1016,7 hPa 0,0 l/m 0 min 0 min 405 W/m 12,6 km/h (3 Bft) 93,62 %
24.06.2016 12:48 24,8 C 28,9 C 27,2 C 86 % 0 lf 1016,7 hPa 0,0 l/m 2 min 0 min 509 W/m 14,6 km/h (3 Bft) 93,62 %
24.06.2016 12:50 24,9 C 28,9 C 27,8 C 85 % 0 lf 1016,7 hPa 0,0 l/m 2 min 0 min 642 W/m 12,6 km/h (3 Bft) 95,74 %
24.06.2016 12:52 24,9 C 28,9 C 27,2 C 85 % 0 lf 1016,7 hPa 0,0 l/m 0 min 0 min 409 W/m 14,6 km/h (3 Bft) 93,62 %
24.06.2016 12:54 24,9 C 28,3 C 27,2 C 85 % 0 lf 1016,6 hPa 0,0 l/m 0 min 0 min 380 W/m 16,7 km/h (3 Bft) 95,65 %
24.06.2016 12:56 24,9 C 27,8 C 26,7 C 84 % 0 lf 1016,6 hPa 0,0 l/m 0 min 0 min 321 W/m 14,6 km/h (3 Bft) 93,62 %
24.06.2016 12:58 25,0 C 27,8 C 26,1 C 84 % 0 lf 1016,7 hPa 0,0 l/m 0 min 0 min 216 W/m 14,6 km/h (3 Bft) 91,49 %
24.06.2016 13:00 24,9 C 26,7 C 25,0 C 83 % 0 lf 1016,7 hPa 0,0 l/m 0 min 0 min 141 W/m 12,6 km/h (3 Bft) 95,74 %
24.06.2016 13:02 24,9 C 26,1 C 24,4 C 83 % 0 lf 1016,7 hPa 0,0 l/m 0 min 0 min 115 W/m 12,6 km/h (3 Bft) 93,62 %
24.06.2016 13:04 24,9 C 25,6 C 23,9 C 83 % 0 lf 1016,7 hPa 0,0 l/m 0 min 0 min 121 W/m 12,6 km/h (3 Bft) 91,49 %
24.06.2016 13:06 24,8 C 25,6 C 23,9 C 83 % 0 lf 1016,7 hPa 0,0 l/m 0 min 0 min 149 W/m 18,8 km/h (3 Bft) 93,48 %
24.06.2016 13:08 24,8 C 25,0 C 23,9 C 83 % 0 lf 1016,7 hPa 0,0 l/m 0 min 0 min 161 W/m 16,7 km/h (3 Bft) 91,49 %
24.06.2016 13:10 24,7 C 25,0 C 23,9 C 84 % 0 lf 1016,7 hPa 0,0 l/m 0 min 0 min 176 W/m 20,9 km/h (4 Bft) 93,62 %
24.06.2016 13:12 24,6 C 25,0 C 23,9 C 84 % 0 lf 1016,7 hPa 0,0 l/m 0 min 0 min 184 W/m 27,2 km/h (4 Bft) 93,62 %
24.06.2016 13:14 24,5 C 24,4 C 23,3 C 83 % 0 lf 1016,7 hPa 0,0 l/m 0 min 0 min 194 W/m 25,1 km/h (4 Bft) 93,62 %
24.06.2016 13:16 24,4 C 25,0 C 23,9 C 84 % 0 lf 1016,7 hPa 0,0 l/m 0 min 0 min 214 W/m 14,6 km/h (3 Bft) 89,36 %
24.06.2016 13:18 24,3 C 25,0 C 23,9 C 84 % 0 lf 1016,7 hPa 0,0 l/m 0 min 0 min 273 W/m 20,9 km/h (4 Bft) 95,65 %
24.06.2016 13:20 24,2 C 25,6 C 24,4 C 85 % 0 lf 1016,7 hPa 0,0 l/m 0 min 0 min 354 W/m 20,9 km/h (4 Bft) 95,74 %
24.06.2016 13:22 24,2 C 26,7 C 25,6 C 85 % 0 lf 1016,8 hPa 0,0 l/m 2 min 0 min 463 W/m 20,9 km/h (4 Bft) 97,87 %
24.06.2016 13:24 24,2 C 27,2 C 25,6 C 85 % 0 lf 1016,8 hPa 0,0 l/m 2 min 0 min 439 W/m 16,7 km/h (3 Bft) 97,87 %
24.06.2016 13:26 24,2 C 27,2 C 26,1 C 86 % 0 lf 1016,8 hPa 0,0 l/m 0 min 0 min 348 W/m 14,6 km/h (3 Bft) 95,74 %
24.06.2016 13:28 24,3 C 27,2 C 26,1 C 86 % 0 lf 1016,8 hPa 0,0 l/m 0 min 0 min 349 W/m 23,0 km/h (4 Bft) 97,87 %
24.06.2016 13:30 24,2 C 27,2 C 26,1 C 86 % 0 lf 1016,8 hPa 0,0 l/m 0 min 0 min 373 W/m 16,7 km/h (3 Bft) 97,83 %
24.06.2016 13:32 24,3 C 27,2 C 26,1 C 86 % 0 lf 1016,8 hPa 0,0 l/m 0 min 0 min 334 W/m 23,0 km/h (4 Bft) 93,62 %
24.06.2016 13:34 24,3 C 27,2 C 26,1 C 86 % 0 lf 1016,8 hPa 0,0 l/m 0 min 0 min 334 W/m 18,8 km/h (3 Bft) 95,74 %
24.06.2016 13:36 24,3 C 27,2 C 26,1 C 86 % 0 lf 1016,9 hPa 0,0 l/m 0 min 0 min 368 W/m 18,8 km/h (3 Bft) 97,87 %
24.06.2016 13:38 24,3 C 27,2 C 26,1 C 85 % 0 lf 1016,9 hPa 0,0 l/m 0 min 0 min 405 W/m 18,8 km/h (3 Bft) 97,87 %
24.06.2016 13:40 24,3 C 27,8 C 26,7 C 85 % 0 lf 1017,0 hPa 0,0 l/m 2 min 0 min 451 W/m 25,1 km/h (4 Bft) 100,00 %
24.06.2016 13:42 24,3 C 28,3 C 27,2 C 85 % 0 lf 1016,9 hPa 0,0 l/m 2 min 0 min 622 W/m 27,2 km/h (4 Bft) 100,00 %
24.06.2016 13:44 24,4 C 28,9 C 27,2 C 85 % 0 lf 1017,0 hPa 0,0 l/m 2 min 0 min 653 W/m 20,9 km/h (4 Bft) 100,00 %
24.06.2016 13:46 24,4 C 28,9 C 26,7 C 85 % 0 lf 1017,0 hPa 0,0 l/m 2 min 0 min 703 W/m 20,9 km/h (4 Bft) 100,00 %
24.06.2016 13:48 24,4 C 28,3 C 26,7 C 84 % 0 lf 1017,0 hPa 0,0 l/m 2 min 0 min 534 W/m 14,6 km/h (3 Bft) 100,00 %
24.06.2016 13:50 24,5 C 28,3 C 26,7 C 84 % 0 lf 1017,0 hPa 0,0 l/m 2 min 0 min 445 W/m 18,8 km/h (3 Bft) 97,87 %
24.06.2016 13:52 24,5 C 28,3 C 26,7 C 84 % 0 lf 1017,0 hPa 0,0 l/m 0 min 0 min 423 W/m 23,0 km/h (4 Bft) 97,87 %
24.06.2016 13:54 24,5 C 28,9 C 27,2 C 83 % 0 lf 1016,9 hPa 0,0 l/m 2 min 0 min 529 W/m 18,8 km/h (3 Bft) 100,00 %
24.06.2016 13:56 24,5 C 28,9 C 27,2 C 84 % 0 lf 1017,1 hPa 0,0 l/m 2 min 0 min 609 W/m 23,0 km/h (4 Bft) 97,87 %
24.06.2016 13:58 24,6 C 28,9 C 27,2 C 83 % 0 lf 1017,0 hPa 0,0 l/m 2 min 0 min 593 W/m 18,8 km/h (3 Bft) 100,00 %
24.06.2016 14:00 24,6 C 28,9 C 27,8 C 83 % 0 lf 1017,1 hPa 0,0 l/m 2 min 0 min 564 W/m 18,8 km/h (3 Bft) 97,87 %
24.06.2016 14:02 24,6 C 29,4 C 27,2 C 83 % 0 lf 1017,0 hPa 0,0 l/m 2 min 0 min 562 W/m 23,0 km/h (4 Bft) 100,00 %
24.06.2016 14:04 24,6 C 28,3 C 27,2 C 83 % 0 lf 1017,0 hPa 0,0 l/m 2 min 0 min 490 W/m 18,8 km/h (3 Bft) 97,83 %
24.06.2016 14:06 24,7 C 27,8 C 27,2 C 83 % 0 lf 1017,1 hPa 0,0 l/m 0 min 0 min 352 W/m 16,7 km/h (3 Bft) 93,62 %
24.06.2016 14:08 24,7 C 27,2 C 26,7 C 83 % 0 lf 1017,0 hPa 0,0 l/m 0 min 0 min 315 W/m 16,7 km/h (3 Bft) 100,00 %
24.06.2016 14:10 24,7 C 27,2 C 26,7 C 82 % 0 lf 1017,0 hPa 0,0 l/m 0 min 0 min 321 W/m 12,6 km/h (3 Bft) 97,87 %
24.06.2016 14:12 24,7 C 27,2 C 26,7 C 82 % 0 lf 1016,9 hPa 0,0 l/m 0 min 0 min 360 W/m 18,8 km/h (3 Bft) 97,87 %
24.06.2016 14:14 24,6 C 27,2 C 26,7 C 82 % 0 lf 1016,9 hPa 0,0 l/m 2 min 0 min 454 W/m 18,8 km/h (3 Bft) 100,00 %
24.06.2016 14:16 24,7 C 27,8 C 27,2 C 82 % 0 lf 1016,9 hPa 0,0 l/m 2 min 0 min 568 W/m 14,6 km/h (3 Bft) 97,87 %
24.06.2016 14:18 24,7 C 28,3 C 27,8 C 82 % 0 lf 1016,9 hPa 0,0 l/m 2 min 0 min 535 W/m 25,1 km/h (4 Bft) 100,00 %
24.06.2016 14:20 24,7 C 28,9 C 28,3 C 82 % 0 lf 1016,9 hPa 0,0 l/m 2 min 0 min 536 W/m 25,1 km/h (4 Bft) 100,00 %
24.06.2016 14:22 24,7 C 28,9 C 28,3 C 82 % 0 lf 1016,9 hPa 0,0 l/m 2 min 0 min 510 W/m 16,7 km/h (3 Bft) 95,74 %
24.06.2016 14:24 24,7 C 28,3 C 27,8 C 82 % 0 lf 1017,0 hPa 0,0 l/m 2 min 0 min 440 W/m 12,6 km/h (3 Bft) 95,74 %
24.06.2016 14:26 24,7 C 27,8 C 27,2 C 81 % 0 lf 1017,0 hPa 0,0 l/m 0 min 0 min 408 W/m 23,0 km/h (4 Bft) 100,00 %
24.06.2016 14:28 24,7 C 28,3 C 27,8 C 80 % 0 lf 1017,0 hPa 0,0 l/m 2 min 0 min 443 W/m 18,8 km/h (3 Bft) 95,65 %
24.06.2016 14:30 24,7 C 28,9 C 28,3 C 81 % 0 lf 1016,9 hPa 0,0 l/m 2 min 0 min 443 W/m 14,6 km/h (3 Bft) 100,00 %
24.06.2016 14:32 24,8 C 28,9 C 27,8 C 81 % 0 lf 1016,8 hPa 0,0 l/m 2 min 0 min 443 W/m 16,7 km/h (3 Bft) 97,87 %
24.06.2016 14:34 24,8 C 27,2 C 27,2 C 80 % 0 lf 1016,9 hPa 0,0 l/m 0 min 0 min 380 W/m 16,7 km/h (3 Bft) 97,87 %
24.06.2016 14:36 24,8 C 27,8 C 27,2 C 80 % 0 lf 1016,8 hPa 0,0 l/m 0 min 0 min 387 W/m 23,0 km/h (4 Bft) 97,87 %
24.06.2016 14:38 24,8 C 28,9 C 27,8 C 80 % 0 lf 1016,8 hPa 0,0 l/m 2 min 0 min 516 W/m 18,8 km/h (3 Bft) 97,87 %
24.06.2016 14:40 24,8 C 29,4 C 27,8 C 81 % 0 lf 1016,8 hPa 0,0 l/m 2 min 0 min 461 W/m 20,9 km/h (4 Bft) 93,48 %
24.06.2016 14:42 24,8 C 29,4 C 27,8 C 80 % 0 lf 1016,9 hPa 0,0 l/m 2 min 0 min 469 W/m 20,9 km/h (4 Bft) 95,74 %
24.06.2016 14:44 24,8 C 28,9 C 27,8 C 80 % 0 lf 1016,9 hPa 0,0 l/m 2 min 0 min 421 W/m 18,8 km/h (3 Bft) 97,87 %
24.06.2016 14:46 24,8 C 28,3 C 27,8 C 80 % 0 lf 1017,0 hPa 0,0 l/m 0 min 0 min 383 W/m 16,7 km/h (3 Bft) 95,74 %
24.06.2016 14:48 24,9 C 27,8 C 27,2 C 80 % 0 lf 1016,9 hPa 0,0 l/m 0 min 0 min 338 W/m 10,5 km/h (2 Bft) 95,74 %
24.06.2016 14:50 24,9 C 27,8 C 27,2 C 80 % 0 lf 1016,9 hPa 0,0 l/m 0 min 0 min 350 W/m 16,7 km/h (3 Bft) 95,74 %
24.06.2016 14:52 24,9 C 27,2 C 26,7 C 80 % 0 lf 1016,9 hPa 0,0 l/m 0 min 0 min 351 W/m 16,7 km/h (3 Bft) 95,65 %
24.06.2016 14:54 24,9 C 27,2 C 26,7 C 80 % 0 lf 1017,1 hPa 0,0 l/m 0 min 0 min 385 W/m 18,8 km/h (3 Bft) 95,74 %
24.06.2016 14:56 24,8 C 27,2 C 27,2 C 79 % 0 lf 1017,1 hPa 0,0 l/m 2 min 0 min 424 W/m 20,9 km/h (4 Bft) 97,87 %
24.06.2016 14:58 24,8 C 27,2 C 27,2 C 79 % 0 lf 1017,1 hPa 0,0 l/m 2 min 0 min 458 W/m 20,9 km/h (4 Bft) 97,87 %
24.06.2016 15:00 24,8 C 27,2 C 26,7 C 78 % 0 lf 1017,1 hPa 0,0 l/m 0 min 0 min 375 W/m 16,7 km/h (3 Bft) 97,87 %
24.06.2016 15:02 24,8 C 27,8 C 26,7 C 79 % 0 lf 1017,1 hPa 0,0 l/m 0 min 0 min 340 W/m 16,7 km/h (3 Bft) 97,87 %
24.06.2016 15:04 24,8 C 27,8 C 26,7 C 79 % 0 lf 1017,1 hPa 0,0 l/m 0 min 0 min 384 W/m 18,8 km/h (3 Bft) 95,65 %
24.06.2016 15:06 24,8 C 27,8 C 26,1 C 79 % 0 lf 1017,1 hPa 0,0 l/m 0 min 0 min 362 W/m 18,8 km/h (3 Bft) 93,62 %
24.06.2016 15:08 24,8 C 27,2 C 26,1 C 79 % 0 lf 1017,2 hPa 0,0 l/m 0 min 0 min 303 W/m 16,7 km/h (3 Bft) 93,62 %
24.06.2016 15:10 24,8 C 27,2 C 26,1 C 79 % 0 lf 1017,3 hPa 0,0 l/m 0 min 0 min 282 W/m 10,5 km/h (2 Bft) 95,74 %
24.06.2016 15:12 24,8 C 27,2 C 26,1 C 79 % 0 lf 1017,3 hPa 0,0 l/m 0 min 0 min 277 W/m 12,6 km/h (3 Bft) 93,62 %
24.06.2016 15:14 24,8 C 26,7 C 25,6 C 79 % 0 lf 1017,3 hPa 0,0 l/m 0 min 0 min 258 W/m 8,4 km/h (2 Bft) 93,48 %
24.06.2016 15:16 24,8 C 26,7 C 25,6 C 79 % 0 lf 1017,3 hPa 0,0 l/m 0 min 0 min 243 W/m 8,4 km/h (2 Bft) 87,23 %
24.06.2016 15:18 24,8 C 26,7 C 25,6 C 79 % 0 lf 1017,3 hPa 0,0 l/m 0 min 0 min 230 W/m 14,6 km/h (3 Bft) 93,62 %
24.06.2016 15:20 24,8 C 26,7 C 25,6 C 80 % 0 lf 1017,3 hPa 0,0 l/m 0 min 0 min 240 W/m 14,6 km/h (3 Bft) 93,62 %
24.06.2016 15:22 24,8 C 26,1 C 25,6 C 79 % 0 lf 1017,3 hPa 0,0 l/m 0 min 0 min 268 W/m 12,6 km/h (3 Bft) 93,62 %
24.06.2016 15:24 24,7 C 26,1 C 25,6 C 78 % 0 lf 1017,3 hPa 0,0 l/m 0 min 0 min 304 W/m 12,6 km/h (3 Bft) 91,49 %
24.06.2016 15:26 24,7 C 26,7 C 26,1 C 78 % 0 lf 1017,3 hPa 0,0 l/m 0 min 0 min 357 W/m 16,7 km/h (3 Bft) 91,30 %
24.06.2016 15:28 24,7 C 29,4 C 28,9 C 78 % 0 lf 1017,1 hPa 0,0 l/m 2 min 0 min 536 W/m 12,6 km/h (3 Bft) 91,49 %
24.06.2016 15:30 24,8 C 30,0 C 28,9 C 79 % 0 lf 1017,1 hPa 0,0 l/m 2 min 0 min 783 W/m 12,6 km/h (3 Bft) 95,74 %
24.06.2016 15:32 24,8 C 31,7 C 30,6 C 79 % 0 lf 1017,1 hPa 0,0 l/m 2 min 0 min 565 W/m 6,3 km/h (2 Bft) 91,49 %
24.06.2016 15:34 24,9 C 30,6 C 29,4 C 77 % 0 lf 1017,1 hPa 0,0 l/m 2 min 0 min 601 W/m 18,8 km/h (3 Bft) 93,62 %
24.06.2016 15:36 25,0 C 30,0 C 28,9 C 78 % 0 lf 1017,0 hPa 0,0 l/m 0 min 0 min 369 W/m 8,4 km/h (2 Bft) 93,62 %
24.06.2016 15:38 25,1 C 28,9 C 28,3 C 78 % 0 lf 1017,1 hPa 0,0 l/m 2 min 0 min 400 W/m 12,6 km/h (3 Bft) 93,48 %
24.06.2016 15:40 25,1 C 28,3 C 27,8 C 77 % 0 lf 1017,1 hPa 0,0 l/m 0 min 0 min 365 W/m 14,6 km/h (3 Bft) 91,49 %
24.06.2016 15:42 25,1 C 28,3 C 27,2 C 78 % 0 lf 1017,0 hPa 0,0 l/m 0 min 0 min 299 W/m 10,5 km/h (2 Bft) 95,74 %
24.06.2016 15:44 25,1 C 28,3 C 27,2 C 78 % 0 lf 1017,0 hPa 0,0 l/m 0 min 0 min 293 W/m 10,5 km/h (2 Bft) 93,62 %
24.06.2016 15:46 25,2 C 29,4 C 28,9 C 77 % 0 lf 1016,9 hPa 0,0 l/m 2 min 0 min 533 W/m 14,6 km/h (3 Bft) 93,62 %
24.06.2016 15:48 25,2 C 31,7 C 31,1 C 77 % 0 lf 1016,9 hPa 0,0 l/m 2 min 0 min 922 W/m 14,6 km/h (3 Bft) 91,49 %
24.06.2016 15:50 25,3 C 30,6 C 28,9 C 76 % 0 lf 1017,0 hPa 0,0 l/m 2 min 0 min 588 W/m 14,6 km/h (3 Bft) 93,48 %
24.06.2016 15:52 25,3 C 31,1 C 30,0 C 77 % 0 lf 1016,9 hPa 0,0 l/m 2 min 0 min 487 W/m 10,5 km/h (2 Bft) 93,62 %
24.06.2016 15:54 25,4 C 30,6 C 29,4 C 77 % 0 lf 1016,8 hPa 0,0 l/m 2 min 0 min 685 W/m 12,6 km/h (3 Bft) 95,74 %
24.06.2016 15:56 25,4 C 30,0 C 28,9 C 77 % 0 lf 1016,8 hPa 0,0 l/m 0 min 0 min 353 W/m 12,6 km/h (3 Bft) 95,74 %
24.06.2016 15:58 25,5 C 30,0 C 30,0 C 77 % 0 lf 1016,7 hPa 0,0 l/m 2 min 0 min 402 W/m 8,4 km/h (2 Bft) 95,74 %
24.06.2016 16:00 25,6 C 31,7 C 30,6 C 77 % 0 lf 1016,7 hPa 0,0 l/m 2 min 0 min 450 W/m 14,6 km/h (3 Bft) 97,87 %
24.06.2016 16:02 25,7 C 32,2 C 31,7 C 77 % 0 lf 1016,7 hPa 0,0 l/m 2 min 0 min 694 W/m 8,4 km/h (2 Bft) 93,48 %
24.06.2016 16:04 25,7 C 31,7 C 31,1 C 77 % 0 lf 1016,8 hPa 0,0 l/m 2 min 0 min 493 W/m 12,6 km/h (3 Bft) 97,87 %
24.06.2016 16:06 25,8 C 32,8 C 32,8 C 76 % 0 lf 1016,6 hPa 0,0 l/m 2 min 0 min 578 W/m 10,5 km/h (2 Bft) 89,36 %
24.06.2016 16:08 25,9 C 32,2 C 31,7 C 75 % 0 lf 1016,7 hPa 0,0 l/m 2 min 0 min 640 W/m 12,6 km/h (3 Bft) 93,62 %
24.06.2016 16:10 25,9 C 31,1 C 31,1 C 74 % 0 lf 1016,7 hPa 0,0 l/m 0 min 0 min 295 W/m 10,5 km/h (2 Bft) 97,87 %
24.06.2016 16:12 25,9 C 31,1 C 31,1 C 73 % 0 lf 1016,6 hPa 0,0 l/m 2 min 0 min 647 W/m 10,5 km/h (2 Bft) 97,87 %
24.06.2016 16:14 26,0 C 31,1 C 31,1 C 74 % 0 lf 1016,6 hPa 0,0 l/m 2 min 0 min 666 W/m 8,4 km/h (2 Bft) 95,65 %
24.06.2016 16:16 26,0 C 31,1 C 30,6 C 74 % 0 lf 1016,6 hPa 0,0 l/m 2 min 0 min 577 W/m 16,7 km/h (3 Bft) 95,74 %
24.06.2016 16:18 26,1 C 31,1 C 30,0 C 74 % 0 lf 1016,6 hPa 0,0 l/m 2 min 0 min 476 W/m 10,5 km/h (2 Bft) 95,74 %
24.06.2016 16:20 26,1 C 31,1 C 30,0 C 74 % 0 lf 1016,6 hPa 0,0 l/m 2 min 0 min 463 W/m 10,5 km/h (2 Bft) 97,87 %
24.06.2016 16:22 26,1 C 32,2 C 31,1 C 74 % 0 lf 1016,5 hPa 0,0 l/m 2 min 0 min 576 W/m 14,6 km/h (3 Bft) 97,87 %
24.06.2016 16:24 26,2 C 32,2 C 31,1 C 73 % 0 lf 1016,6 hPa 0,0 l/m 2 min 0 min 740 W/m 16,7 km/h (3 Bft) 95,74 %
24.06.2016 16:26 26,2 C 32,8 C 31,7 C 73 % 0 lf 1016,5 hPa 0,0 l/m 2 min 0 min 728 W/m 12,6 km/h (3 Bft) 97,83 %
24.06.2016 16:28 26,2 C 32,2 C 30,6 C 73 % 0 lf 1016,6 hPa 0,0 l/m 2 min 0 min 694 W/m 18,8 km/h (3 Bft) 97,87 %
24.06.2016 16:30 26,2 C 30,6 C 29,4 C 73 % 0 lf 1016,6 hPa 0,0 l/m 0 min 0 min 314 W/m 16,7 km/h (3 Bft) 97,87 %
24.06.2016 16:32 26,2 C 29,4 C 28,3 C 74 % 0 lf 1016,5 hPa 0,0 l/m 0 min 0 min 290 W/m 16,7 km/h (3 Bft) 97,87 %
24.06.2016 16:34 26,2 C 28,9 C 27,8 C 74 % 0 lf 1016,5 hPa 0,0 l/m 0 min 0 min 309 W/m 10,5 km/h (2 Bft) 93,62 %
24.06.2016 16:36 26,1 C 28,9 C 27,2 C 73 % 0 lf 1016,5 hPa 0,0 l/m 0 min 0 min 331 W/m 14,6 km/h (3 Bft) 97,83 %
24.06.2016 16:38 26,1 C 30,0 C 28,9 C 73 % 0 lf 1016,5 hPa 0,0 l/m 2 min 0 min 399 W/m 10,5 km/h (2 Bft) 100,00 %
24.06.2016 16:40 26,1 C 31,1 C 30,0 C 74 % 0 lf 1016,6 hPa 0,0 l/m 2 min 0 min 592 W/m 14,6 km/h (3 Bft) 100,00 %
24.06.2016 16:42 26,2 C 31,7 C 31,1 C 74 % 0 lf 1016,6 hPa 0,0 l/m 2 min 0 min 765 W/m 12,6 km/h (3 Bft) 97,87 %
24.06.2016 16:44 26,2 C 32,2 C 32,2 C 75 % 0 lf 1016,6 hPa 0,0 l/m 2 min 0 min 711 W/m 8,4 km/h (2 Bft) 97,87 %
24.06.2016 16:46 26,2 C 31,1 C 31,1 C 74 % 0 lf 1016,5 hPa 0,0 l/m 2 min 0 min 532 W/m 10,5 km/h (2 Bft) 97,87 %
24.06.2016 16:48 26,3 C 30,6 C 30,0 C 75 % 0 lf 1016,6 hPa 0,0 l/m 0 min 0 min 282 W/m 12,6 km/h (3 Bft) 100,00 %
24.06.2016 16:50 26,3 C 29,4 C 29,4 C 74 % 0 lf 1016,5 hPa 0,0 l/m 0 min 0 min 255 W/m 12,6 km/h (3 Bft) 100,00 %
24.06.2016 16:52 26,3 C 28,9 C 27,8 C 74 % 0 lf 1016,5 hPa 0,0 l/m 0 min 0 min 230 W/m 8,4 km/h (2 Bft) 100,00 %
24.06.2016 16:54 26,2 C 27,8 C 27,2 C 73 % 0 lf 1016,5 hPa 0,0 l/m 0 min 0 min 223 W/m 6,3 km/h (2 Bft) 100,00 %
24.06.2016 16:56 26,2 C 27,2 C 26,7 C 73 % 0 lf 1016,5 hPa 0,0 l/m 0 min 0 min 231 W/m 10,5 km/h (2 Bft) 100,00 %
24.06.2016 16:58 26,1 C 27,8 C 26,7 C 74 % 0 lf 1016,5 hPa 0,0 l/m 0 min 0 min 274 W/m 8,4 km/h (2 Bft) 95,74 %
24.06.2016 17:00 26,1 C 27,8 C 26,7 C 74 % 0 lf 1016,5 hPa 0,0 l/m 0 min 0 min 255 W/m 16,7 km/h (3 Bft) 97,83 %
24.06.2016 17:02 26,1 C 27,8 C 26,7 C 74 % 0 lf 1016,4 hPa 0,0 l/m 0 min 0 min 273 W/m 10,5 km/h (2 Bft) 98,11 %
24.06.2016 17:04 26,1 C 28,3 C 28,3 C 75 % 0 lf 1016,4 hPa 0,0 l/m 0 min 0 min 318 W/m 12,6 km/h (3 Bft) 95,74 %
24.06.2016 17:06 26,1 C 28,9 C 28,9 C 75 % 0 lf 1016,4 hPa 0,0 l/m 2 min 0 min 452 W/m 18,8 km/h (3 Bft) 100,00 %
24.06.2016 17:08 26,1 C 28,9 C 28,3 C 75 % 0 lf 1016,4 hPa 0,0 l/m 0 min 0 min 308 W/m 14,6 km/h (3 Bft) 100,00 %
24.06.2016 17:10 26,0 C 28,3 C 27,2 C 75 % 0 lf 1016,5 hPa 0,0 l/m 0 min 0 min 221 W/m 10,5 km/h (2 Bft) 100,00 %
24.06.2016 17:12 26,0 C 28,3 C 27,2 C 75 % 0 lf 1016,4 hPa 0,0 l/m 0 min 0 min 241 W/m 16,7 km/h (3 Bft) 97,87 %
24.06.2016 17:14 25,9 C 27,8 C 26,7 C 75 % 0 lf 1016,4 hPa 0,0 l/m 0 min 0 min 229 W/m 12,6 km/h (3 Bft) 97,83 %
24.06.2016 17:16 25,9 C 27,2 C 26,1 C 75 % 0 lf 1016,4 hPa 0,0 l/m 0 min 0 min 244 W/m 6,3 km/h (2 Bft) 97,87 %
24.06.2016 17:18 25,8 C 27,2 C 26,1 C 75 % 0 lf 1016,4 hPa 0,0 l/m 0 min 0 min 289 W/m 8,4 km/h (2 Bft) 97,87 %
24.06.2016 17:20 25,8 C 27,2 C 26,1 C 76 % 0 lf 1016,4 hPa 0,0 l/m 0 min 0 min 245 W/m 10,5 km/h (2 Bft) 97,87 %
24.06.2016 17:22 25,8 C 26,7 C 25,6 C 76 % 0 lf 1016,3 hPa 0,0 l/m 0 min 0 min 166 W/m 8,4 km/h (2 Bft) 97,87 %
24.06.2016 17:24 25,7 C 26,7 C 25,6 C 76 % 0 lf 1016,4 hPa 0,0 l/m 0 min 0 min 142 W/m 10,5 km/h (2 Bft) 97,87 %
24.06.2016 17:26 25,7 C 26,1 C 25,0 C 76 % 0 lf 1016,4 hPa 0,0 l/m 0 min 0 min 118 W/m 10,5 km/h (2 Bft) 97,83 %
24.06.2016 17:28 25,6 C 26,1 C 25,0 C 77 % 0 lf 1016,3 hPa 0,0 l/m 0 min 0 min 166 W/m 18,8 km/h (3 Bft) 95,74 %
24.06.2016 17:30 25,6 C 26,1 C 24,4 C 76 % 0 lf 1016,3 hPa 0,0 l/m 0 min 0 min 125 W/m 12,6 km/h (3 Bft) 95,74 %
24.06.2016 17:32 25,5 C 26,1 C 24,4 C 75 % 0 lf 1016,3 hPa 0,0 l/m 0 min 0 min 112 W/m 14,6 km/h (3 Bft) 97,87 %
24.06.2016 17:34 25,4 C 26,1 C 24,4 C 75 % 0 lf 1016,4 hPa 0,0 l/m 0 min 0 min 149 W/m 14,6 km/h (3 Bft) 97,87 %
24.06.2016 17:36 25,4 C 26,1 C 24,4 C 75 % 0 lf 1016,4 hPa 0,0 l/m 0 min 0 min 175 W/m 12,6 km/h (3 Bft) 97,87 %
24.06.2016 17:38 25,3 C 26,1 C 24,4 C 76 % 0 lf 1016,4 hPa 0,0 l/m 0 min 0 min 184 W/m 14,6 km/h (3 Bft) 95,65 %
24.06.2016 17:40 25,3 C 26,1 C 25,0 C 76 % 0 lf 1016,4 hPa 0,0 l/m 0 min 0 min 250 W/m 20,9 km/h (4 Bft) 93,62 %
24.06.2016 17:42 25,3 C 26,7 C 25,6 C 76 % 0 lf 1016,5 hPa 0,0 l/m 2 min 0 min 299 W/m 16,7 km/h (3 Bft) 95,74 %
24.06.2016 17:44 25,2 C 26,7 C 25,6 C 76 % 0 lf 1016,4 hPa 0,0 l/m 0 min 0 min 269 W/m 10,5 km/h (2 Bft) 97,87 %
24.06.2016 17:46 25,2 C 26,7 C 25,6 C 77 % 0 lf 1016,4 hPa 0,0 l/m 0 min 0 min 238 W/m 12,6 km/h (3 Bft) 97,87 %
24.06.2016 17:48 25,2 C 26,7 C 25,6 C 77 % 0 lf 1016,5 hPa 0,0 l/m 0 min 0 min 217 W/m 10,5 km/h (2 Bft) 95,74 %
24.06.2016 17:50 25,2 C 26,7 C 25,6 C 77 % 0 lf 1016,5 hPa 0,0 l/m 0 min 0 min 196 W/m 14,6 km/h (3 Bft) 93,48 %
24.06.2016 17:52 25,1 C 26,1 C 25,6 C 78 % 0 lf 1016,5 hPa 0,0 l/m 0 min 0 min 170 W/m 10,5 km/h (2 Bft) 93,62 %
24.06.2016 17:54 25,1 C 26,1 C 25,0 C 78 % 0 lf 1016,5 hPa 0,0 l/m 0 min 0 min 158 W/m 14,6 km/h (3 Bft) 95,74 %
24.06.2016 17:56 25,1 C 26,1 C 25,0 C 78 % 0 lf 1016,4 hPa 0,0 l/m 0 min 0 min 213 W/m 12,6 km/h (3 Bft) 95,74 %
24.06.2016 17:58 25,1 C 26,7 C 25,6 C 78 % 0 lf 1016,5 hPa 0,0 l/m 0 min 0 min 253 W/m 12,6 km/h (3 Bft) 93,62 %
24.06.2016 18:00 25,1 C 27,2 C 25,6 C 77 % 0 lf 1016,5 hPa 0,0 l/m 2 min 0 min 350 W/m 16,7 km/h (3 Bft) 93,62 %
24.06.2016 18:02 25,1 C 27,2 C 25,6 C 77 % 0 lf 1016,5 hPa 0,0 l/m 2 min 0 min 401 W/m 12,6 km/h (3 Bft) 95,65 %
24.06.2016 18:04 25,1 C 27,2 C 25,6 C 76 % 0 lf 1016,6 hPa 0,0 l/m 2 min 0 min 301 W/m 12,6 km/h (3 Bft) 91,67 %
24.06.2016 18:06 25,0 C 27,2 C 25,6 C 77 % 0 lf 1016,6 hPa 0,0 l/m 2 min 0 min 279 W/m 10,5 km/h (2 Bft) 95,74 %
24.06.2016 18:08 25,0 C 27,2 C 25,6 C 77 % 0 lf 1016,6 hPa 0,0 l/m 0 min 0 min 221 W/m 8,4 km/h (2 Bft) 95,74 %
24.06.2016 18:10 25,0 C 26,7 C 25,0 C 77 % 0 lf 1016,6 hPa 0,0 l/m 0 min 0 min 167 W/m 14,6 km/h (3 Bft) 93,62 %
24.06.2016 18:12 24,9 C 26,7 C 24,4 C 77 % 0 lf 1016,6 hPa 0,0 l/m 0 min 0 min 123 W/m 10,5 km/h (2 Bft) 93,48 %
24.06.2016 18:14 24,9 C 26,1 C 24,4 C 77 % 0 lf 1016,6 hPa 0,0 l/m 0 min 0 min 121 W/m 14,6 km/h (3 Bft) 95,74 %
24.06.2016 18:16 24,9 C 25,6 C 23,9 C 77 % 0 lf 1016,6 hPa 0,0 l/m 0 min 0 min 127 W/m 14,6 km/h (3 Bft) 95,74 %
24.06.2016 18:18 24,8 C 25,6 C 23,9 C 78 % 0 lf 1016,7 hPa 0,0 l/m 0 min 0 min 110 W/m 16,7 km/h (3 Bft) 95,74 %
24.06.2016 18:20 24,8 C 25,0 C 23,3 C 78 % 0 lf 1016,7 hPa 0,0 l/m 0 min 0 min 109 W/m 10,5 km/h (2 Bft) 93,62 %
24.06.2016 18:22 24,7 C 25,0 C 23,3 C 78 % 0 lf 1016,7 hPa 0,0 l/m 0 min 0 min 115 W/m 12,6 km/h (3 Bft) 89,36 %
24.06.2016 18:24 24,7 C 25,0 C 23,3 C 78 % 0 lf 1016,6 hPa 0,0 l/m 0 min 0 min 113 W/m 10,5 km/h (2 Bft) 91,30 %
24.06.2016 18:26 24,6 C 24,4 C 23,3 C 78 % 0 lf 1016,7 hPa 0,0 l/m 0 min 0 min 98 W/m 12,6 km/h (3 Bft) 93,62 %
24.06.2016 18:28 24,5 C 24,4 C 23,3 C 78 % 0 lf 1016,8 hPa 0,0 l/m 0 min 0 min 99 W/m 12,6 km/h (3 Bft) 93,62 %
24.06.2016 18:30 24,4 C 24,4 C 23,3 C 78 % 0 lf 1016,8 hPa 0,0 l/m 0 min 0 min 89 W/m 8,4 km/h (2 Bft) 95,74 %
24.06.2016 18:32 24,4 C 24,4 C 23,3 C 79 % 0 lf 1016,8 hPa 0,0 l/m 0 min 0 min 86 W/m 6,3 km/h (2 Bft) 97,87 %
24.06.2016 18:34 24,4 C 24,4 C 23,3 C 79 % 0 lf 1016,8 hPa 0,0 l/m 0 min 0 min 98 W/m 10,5 km/h (2 Bft) 97,87 %
24.06.2016 18:36 24,3 C 24,4 C 23,3 C 79 % 0 lf 1016,8 hPa 0,0 l/m 0 min 0 min 103 W/m 12,6 km/h (3 Bft) 97,96 %
24.06.2016 18:38 24,3 C 24,4 C 23,3 C 79 % 0 lf 1016,8 hPa 0,0 l/m 0 min 0 min 99 W/m 12,6 km/h (3 Bft) 91,49 %
24.06.2016 18:40 24,2 C 24,4 C 23,3 C 80 % 0 lf 1016,8 hPa 0,0 l/m 0 min 0 min 97 W/m 8,4 km/h (2 Bft) 93,62 %
24.06.2016 18:42 24,2 C 24,4 C 23,3 C 80 % 0 lf 1016,9 hPa 0,0 l/m 0 min 0 min 95 W/m 6,3 km/h (2 Bft) 97,87 %
24.06.2016 18:44 24,2 C 25,0 C 23,3 C 80 % 0 lf 1016,8 hPa 0,0 l/m 0 min 0 min 97 W/m 8,4 km/h (2 Bft) 97,87 %
24.06.2016 18:46 24,2 C 24,4 C 23,3 C 80 % 0 lf 1016,8 hPa 0,0 l/m 0 min 0 min 95 W/m 12,6 km/h (3 Bft) 97,87 %
24.06.2016 18:48 24,1 C 24,4 C 22,8 C 80 % 0 lf 1016,7 hPa 0,0 l/m 0 min 0 min 95 W/m 12,6 km/h (3 Bft) 93,48 %
24.06.2016 18:50 24,1 C 24,4 C 22,8 C 80 % 0 lf 1016,8 hPa 0,0 l/m 0 min 0 min 95 W/m 12,6 km/h (3 Bft) 100,00 %
24.06.2016 18:52 24,0 C 24,4 C 22,8 C 80 % 0 lf 1016,8 hPa 0,0 l/m 0 min 0 min 92 W/m 12,6 km/h (3 Bft) 100,00 %
24.06.2016 18:54 24,0 C 24,4 C 22,8 C 80 % 0 lf 1016,7 hPa 0,0 l/m 0 min 0 min 88 W/m 8,4 km/h (2 Bft) 95,74 %
24.06.2016 18:56 23,9 C 24,4 C 22,8 C 80 % 0 lf 1016,7 hPa 0,0 l/m 0 min 0 min 83 W/m 8,4 km/h (2 Bft) 95,74 %
24.06.2016 18:58 23,9 C 23,9 C 22,8 C 80 % 0 lf 1016,6 hPa 0,0 l/m 0 min 0 min 80 W/m 12,6 km/h (3 Bft) 97,83 %
24.06.2016 19:00 23,9 C 23,9 C 22,8 C 80 % 0 lf 1016,6 hPa 0,0 l/m 0 min 0 min 79 W/m 8,4 km/h (2 Bft) 97,87 %
24.06.2016 19:02 23,8 C 23,9 C 22,8 C 80 % 0 lf 1016,5 hPa 0,0 l/m 0 min 0 min 78 W/m 6,3 km/h (2 Bft) 95,83 %
24.06.2016 19:04 23,8 C 23,9 C 22,8 C 80 % 0 lf 1016,5 hPa 0,0 l/m 0 min 0 min 76 W/m 8,4 km/h (2 Bft) 97,87 %
24.06.2016 19:06 23,8 C 23,9 C 22,2 C 80 % 0 lf 1016,5 hPa 0,0 l/m 0 min 0 min 73 W/m 10,5 km/h (2 Bft) 97,87 %
24.06.2016 19:08 23,7 C 23,9 C 22,2 C 80 % 0 lf 1016,5 hPa 0,0 l/m 0 min 0 min 72 W/m 10,5 km/h (2 Bft) 95,74 %
24.06.2016 19:10 23,7 C 23,9 C 22,2 C 81 % 0 lf 1016,4 hPa 0,0 l/m 0 min 0 min 76 W/m 10,5 km/h (2 Bft) 95,65 %
24.06.2016 19:12 23,7 C 23,9 C 22,2 C 81 % 0 lf 1016,4 hPa 0,0 l/m 0 min 0 min 82 W/m 8,4 km/h (2 Bft) 93,62 %
24.06.2016 19:14 23,7 C 23,9 C 22,2 C 81 % 0 lf 1016,4 hPa 0,0 l/m 0 min 0 min 87 W/m 10,5 km/h (2 Bft) 95,74 %
24.06.2016 19:16 23,6 C 23,9 C 22,8 C 81 % 0 lf 1016,4 hPa 0,0 l/m 0 min 0 min 93 W/m 8,4 km/h (2 Bft) 91,49 %
24.06.2016 19:18 23,6 C 23,9 C 22,8 C 81 % 0 lf 1016,4 hPa 0,0 l/m 0 min 0 min 101 W/m 6,3 km/h (2 Bft) 93,62 %
24.06.2016 19:20 23,6 C 23,9 C 22,8 C 81 % 0 lf 1016,4 hPa 0,0 l/m 0 min 0 min 105 W/m 12,6 km/h (3 Bft) 95,74 %
24.06.2016 19:22 23,6 C 23,9 C 22,8 C 81 % 0 lf 1016,4 hPa 0,0 l/m 0 min 0 min 104 W/m 12,6 km/h (3 Bft) 97,83 %
24.06.2016 19:24 23,5 C 23,9 C 22,8 C 82 % 0 lf 1016,4 hPa 0,0 l/m 0 min 0 min 99 W/m 10,5 km/h (2 Bft) 91,49 %
24.06.2016 19:26 23,5 C 23,9 C 22,8 C 82 % 0 lf 1016,4 hPa 0,0 l/m 0 min 0 min 92 W/m 8,4 km/h (2 Bft) 93,62 %
24.06.2016 19:28 23,5 C 23,9 C 22,8 C 82 % 0 lf 1016,4 hPa 0,0 l/m 0 min 0 min 89 W/m 6,3 km/h (2 Bft) 89,36 %
24.06.2016 19:30 23,4 C 23,9 C 22,8 C 82 % 0 lf 1016,4 hPa 0,0 l/m 0 min 0 min 85 W/m 8,4 km/h (2 Bft) 95,74 %
24.06.2016 19:32 23,4 C 23,9 C 22,8 C 82 % 0 lf 1016,4 hPa 0,0 l/m 0 min 0 min 77 W/m 10,5 km/h (2 Bft) 93,62 %
24.06.2016 19:34 23,4 C 23,9 C 22,2 C 82 % 0 lf 1016,4 hPa 0,0 l/m 0 min 0 min 72 W/m 10,5 km/h (2 Bft) 95,65 %
24.06.2016 19:36 23,4 C 23,9 C 22,2 C 82 % 0 lf 1016,4 hPa 0,0 l/m 0 min 0 min 67 W/m 6,3 km/h (2 Bft) 91,67 %
24.06.2016 19:38 23,4 C 23,3 C 22,2 C 82 % 0 lf 1016,4 hPa 0,0 l/m 0 min 0 min 62 W/m 10,5 km/h (2 Bft) 95,74 %
24.06.2016 19:40 23,4 C 23,3 C 22,2 C 82 % 0 lf 1016,4 hPa 0,0 l/m 0 min 0 min 56 W/m 10,5 km/h (2 Bft) 95,74 %
24.06.2016 19:42 23,3 C 23,3 C 22,2 C 82 % 0 lf 1016,4 hPa 0,0 l/m 0 min 0 min 55 W/m 14,6 km/h (3 Bft) 93,48 %
24.06.2016 19:44 23,3 C 23,3 C 21,7 C 82 % 0 lf 1016,4 hPa 0,0 l/m 0 min 0 min 61 W/m 14,6 km/h (3 Bft) 95,74 %
24.06.2016 19:46 23,3 C 23,3 C 21,7 C 82 % 0 lf 1016,4 hPa 0,0 l/m 0 min 0 min 67 W/m 14,6 km/h (3 Bft) 95,74 %
24.06.2016 19:48 23,2 C 23,3 C 21,7 C 82 % 0 lf 1016,4 hPa 0,0 l/m 0 min 0 min 71 W/m 14,6 km/h (3 Bft) 100,00 %
24.06.2016 19:50 23,2 C 23,3 C 21,7 C 82 % 0 lf 1016,4 hPa 0,0 l/m 0 min 0 min 78 W/m 10,5 km/h (2 Bft) 100,00 %
24.06.2016 19:52 23,2 C 23,3 C 22,2 C 82 % 0 lf 1016,4 hPa 0,0 l/m 0 min 0 min 81 W/m 8,4 km/h (2 Bft) 97,87 %
24.06.2016 19:54 23,2 C 23,3 C 22,2 C 82 % 0 lf 1016,4 hPa 0,0 l/m 0 min 0 min 82 W/m 8,4 km/h (2 Bft) 100,00 %
24.06.2016 19:56 23,1 C 23,3 C 22,2 C 82 % 0 lf 1016,4 hPa 0,0 l/m 0 min 0 min 84 W/m 8,4 km/h (2 Bft) 100,00 %
24.06.2016 19:58 23,1 C 23,3 C 22,2 C 82 % 0 lf 1016,4 hPa 0,0 l/m 0 min 0 min 94 W/m 8,4 km/h (2 Bft) 97,87 %
24.06.2016 20:00 23,1 C 23,3 C 22,2 C 82 % 0 lf 1016,5 hPa 0,0 l/m 2 min 0 min 130 W/m 8,4 km/h (2 Bft) 100,00 %
24.06.2016 20:02 23,1 C 23,9 C 22,2 C 82 % 0 lf 1016,5 hPa 0,0 l/m 2 min 0 min 170 W/m 10,5 km/h (2 Bft) 100,00 %
24.06.2016 20:04 23,1 C 23,9 C 22,8 C 82 % 0 lf 1016,5 hPa 0,0 l/m 2 min 0 min 179 W/m 10,5 km/h (2 Bft) 97,83 %
24.06.2016 20:06 23,0 C 23,9 C 22,8 C 82 % 0 lf 1016,5 hPa 0,0 l/m 2 min 0 min 162 W/m 10,5 km/h (2 Bft) 100,00 %
24.06.2016 20:08 23,0 C 23,9 C 22,8 C 82 % 0 lf 1016,5 hPa 0,0 l/m 2 min 0 min 155 W/m 6,3 km/h (2 Bft) 97,87 %
24.06.2016 20:10 23,0 C 24,4 C 22,8 C 82 % 0 lf 1016,6 hPa 0,0 l/m 2 min 0 min 166 W/m 4,2 km/h (1 Bft) 97,87 %
24.06.2016 20:12 23,0 C 24,4 C 23,3 C 82 % 0 lf 1016,6 hPa 0,0 l/m 2 min 0 min 201 W/m 4,2 km/h (1 Bft) 97,87 %
24.06.2016 20:14 23,1 C 24,4 C 23,3 C 82 % 0 lf 1016,5 hPa 0,0 l/m 2 min 0 min 225 W/m 8,4 km/h (2 Bft) 100,00 %
24.06.2016 20:16 23,1 C 25,0 C 23,3 C 82 % 0 lf 1016,5 hPa 0,0 l/m 2 min 0 min 229 W/m 8,4 km/h (2 Bft) 100,00 %
24.06.2016 20:18 23,1 C 25,0 C 23,3 C 82 % 0 lf 1016,6 hPa 0,0 l/m 2 min 0 min 206 W/m 8,4 km/h (2 Bft) 97,83 %
24.06.2016 20:20 23,1 C 24,4 C 23,3 C 82 % 0 lf 1016,6 hPa 0,0 l/m 2 min 0 min 187 W/m 6,3 km/h (2 Bft) 97,87 %
24.06.2016 20:22 23,1 C 24,4 C 23,3 C 82 % 0 lf 1016,5 hPa 0,0 l/m 2 min 0 min 170 W/m 10,5 km/h (2 Bft) 100,00 %
24.06.2016 20:24 23,1 C 24,4 C 22,8 C 82 % 0 lf 1016,5 hPa 0,0 l/m 2 min 0 min 150 W/m 8,4 km/h (2 Bft) 97,87 %
24.06.2016 20:26 23,1 C 23,9 C 22,8 C 82 % 0 lf 1016,5 hPa 0,0 l/m 2 min 0 min 133 W/m 10,5 km/h (2 Bft) 97,87 %
24.06.2016 20:28 23,1 C 23,9 C 22,8 C 81 % 0 lf 1016,5 hPa 0,0 l/m 2 min 0 min 115 W/m 8,4 km/h (2 Bft) 97,83 %
24.06.2016 20:30 23,1 C 23,9 C 22,2 C 81 % 0 lf 1016,5 hPa 0,0 l/m 2 min 0 min 90 W/m 10,5 km/h (2 Bft) 93,62 %
24.06.2016 20:32 23,1 C 23,9 C 22,2 C 81 % 0 lf 1016,5 hPa 0,0 l/m 2 min 0 min 85 W/m 6,3 km/h (2 Bft) 97,87 %
24.06.2016 20:34 23,1 C 23,3 C 21,7 C 81 % 0 lf 1016,6 hPa 0,0 l/m 2 min 0 min 82 W/m 8,4 km/h (2 Bft) 97,87 %
24.06.2016 20:36 23,1 C 23,3 C 21,7 C 81 % 0 lf 1016,5 hPa 0,0 l/m 0 min 0 min 68 W/m 10,5 km/h (2 Bft) 97,87 %
24.06.2016 20:38 23,1 C 23,3 C 21,7 C 81 % 0 lf 1016,5 hPa 0,0 l/m 0 min 0 min 50 W/m 8,4 km/h (2 Bft) 93,62 %
24.06.2016 20:40 23,1 C 22,8 C 21,1 C 81 % 0 lf 1016,5 hPa 0,0 l/m 0 min 0 min 49 W/m 12,6 km/h (3 Bft) 97,83 %
24.06.2016 20:42 23,1 C 22,8 C 21,1 C 81 % 0 lf 1016,5 hPa 0,0 l/m 0 min 0 min 53 W/m 10,5 km/h (2 Bft) 95,74 %
24.06.2016 20:44 23,1 C 22,8 C 21,1 C 81 % 0 lf 1016,5 hPa 0,0 l/m 0 min 0 min 49 W/m 12,6 km/h (3 Bft) 97,87 %
24.06.2016 20:46 23,0 C 22,8 C 21,1 C 81 % 0 lf 1016,6 hPa 0,0 l/m 0 min 0 min 42 W/m 10,5 km/h (2 Bft) 97,87 %
24.06.2016 20:48 23,0 C 22,2 C 21,1 C 81 % 0 lf 1016,7 hPa 0,0 l/m 0 min 0 min 38 W/m 10,5 km/h (2 Bft) 97,87 %
24.06.2016 20:50 22,9 C 22,2 C 20,6 C 81 % 0 lf 1016,7 hPa 0,0 l/m 0 min 0 min 38 W/m 6,3 km/h (2 Bft) 95,74 %
24.06.2016 20:52 22,9 C 22,2 C 20,6 C 81 % 0 lf 1016,7 hPa 0,0 l/m 0 min 0 min 36 W/m 6,3 km/h (2 Bft) 97,83 %
24.06.2016 20:54 22,9 C 22,2 C 20,6 C 81 % 0 lf 1016,7 hPa 0,0 l/m 0 min 0 min 34 W/m 8,4 km/h (2 Bft) 95,74 %
24.06.2016 20:56 22,9 C 22,2 C 20,6 C 82 % 0 lf 1016,7 hPa 0,0 l/m 0 min 0 min 34 W/m 8,4 km/h (2 Bft) 95,74 %
24.06.2016 20:58 22,8 C 22,2 C 20,6 C 82 % 0 lf 1016,7 hPa 0,0 l/m 0 min 0 min 33 W/m 8,4 km/h (2 Bft) 95,74 %
24.06.2016 21:00 22,8 C 22,2 C 20,6 C 82 % 0 lf 1016,8 hPa 0,0 l/m 0 min 0 min 28 W/m 6,3 km/h (2 Bft) 97,87 %
24.06.2016 21:02 22,8 C 22,2 C 20,6 C 82 % 0 lf 1016,8 hPa 0,0 l/m 0 min 0 min 25 W/m 4,2 km/h (1 Bft) 97,87 %
24.06.2016 21:04 22,8 C 22,2 C 20,6 C 82 % 0 lf 1016,9 hPa 0,0 l/m 0 min 0 min 21 W/m 6,3 km/h (2 Bft) 95,65 %
24.06.2016 21:06 22,7 C 22,2 C 20,6 C 82 % 0 lf 1016,9 hPa 0,0 l/m 0 min 0 min 20 W/m 6,3 km/h (2 Bft) 95,74 %
24.06.2016 21:08 22,7 C 22,2 C 20,6 C 82 % 0 lf 1016,9 hPa 0,0 l/m 0 min 0 min 18 W/m 6,3 km/h (2 Bft) 95,74 %
24.06.2016 21:10 22,7 C 22,2 C 20,6 C 83 % 0 lf 1016,9 hPa 0,0 l/m 0 min 0 min 18 W/m 8,4 km/h (2 Bft) 97,87 %
24.06.2016 21:12 22,7 C 22,2 C 20,6 C 83 % 0 lf 1016,8 hPa 0,0 l/m 0 min 0 min 18 W/m 6,3 km/h (2 Bft) 93,62 %
24.06.2016 21:14 22,6 C 22,2 C 20,6 C 83 % 0 lf 1016,8 hPa 0,0 l/m 0 min 0 min 19 W/m 8,4 km/h (2 Bft) 97,83 %
24.06.2016 21:16 22,6 C 21,7 C 20,6 C 83 % 0 lf 1016,9 hPa 0,0 l/m 0 min 0 min 19 W/m 4,2 km/h (1 Bft) 95,74 %
24.06.2016 21:18 22,6 C 21,7 C 20,6 C 83 % 0 lf 1016,9 hPa 0,0 l/m 0 min 0 min 18 W/m 6,3 km/h (2 Bft) 95,74 %
24.06.2016 21:20 22,5 C 21,7 C 20,6 C 84 % 0 lf 1016,9 hPa 0,0 l/m 0 min 0 min 18 W/m 6,3 km/h (2 Bft) 91,49 %
24.06.2016 21:22 22,5 C 21,7 C 20,6 C 84 % 0 lf 1016,9 hPa 0,0 l/m 0 min 0 min 18 W/m 6,3 km/h (2 Bft) 97,87 %
24.06.2016 21:24 22,4 C 21,7 C 20,0 C 84 % 0 lf 1016,9 hPa 0,0 l/m 0 min 0 min 18 W/m 8,4 km/h (2 Bft) 95,74 %
24.06.2016 21:26 22,4 C 21,7 C 20,0 C 84 % 0 lf 1016,9 hPa 0,0 l/m 0 min 0 min 17 W/m 10,5 km/h (2 Bft) 95,65 %
24.06.2016 21:28 22,3 C 21,7 C 20,0 C 84 % 0 lf 1016,9 hPa 0,0 l/m 0 min 0 min 16 W/m 6,3 km/h (2 Bft) 89,36 %
24.06.2016 21:30 22,3 C 21,7 C 20,0 C 84 % 0 lf 1016,8 hPa 0,0 l/m 0 min 0 min 16 W/m 6,3 km/h (2 Bft) 95,74 %
24.06.2016 21:32 22,3 C 21,7 C 20,0 C 84 % 0 lf 1016,9 hPa 0,0 l/m 0 min 0 min 16 W/m 6,3 km/h (2 Bft) 91,43 %
24.06.2016 21:34 22,2 C 21,1 C 20,0 C 84 % 0 lf 1017,0 hPa 0,0 l/m 0 min 0 min 16 W/m 6,3 km/h (2 Bft) 95,74 %
24.06.2016 21:36 22,2 C 21,1 C 20,0 C 84 % 0 lf 1016,9 hPa 0,0 l/m 0 min 0 min 16 W/m 8,4 km/h (2 Bft) 95,74 %
24.06.2016 21:38 22,2 C 21,1 C 20,0 C 84 % 0 lf 1017,0 hPa 0,0 l/m 0 min 0 min 15 W/m 8,4 km/h (2 Bft) 93,62 %
24.06.2016 21:40 22,2 C 21,1 C 20,0 C 84 % 0 lf 1016,9 hPa 0,0 l/m 0 min 0 min 14 W/m 8,4 km/h (2 Bft) 95,74 %
24.06.2016 21:42 22,1 C 21,1 C 20,0 C 84 % 0 lf 1016,9 hPa 0,0 l/m 0 min 0 min 12 W/m 8,4 km/h (2 Bft) 95,65 %
24.06.2016 21:44 22,1 C 21,1 C 20,0 C 84 % 0 lf 1017,0 hPa 0,0 l/m 0 min 0 min 12 W/m 8,4 km/h (2 Bft) 95,74 %
24.06.2016 21:46 22,0 C 21,1 C 19,4 C 85 % 0 lf 1016,8 hPa 0,0 l/m 0 min 0 min 11 W/m 6,3 km/h (2 Bft) 89,36 %
24.06.2016 21:48 22,0 C 20,6 C 19,4 C 85 % 0 lf 1016,9 hPa 0,0 l/m 0 min 0 min 11 W/m 10,5 km/h (2 Bft) 93,62 %
24.06.2016 21:50 21,9 C 20,6 C 19,4 C 85 % 0 lf 1016,9 hPa 0,0 l/m 0 min 0 min 11 W/m 6,3 km/h (2 Bft) 97,87 %
24.06.2016 21:52 21,9 C 20,6 C 19,4 C 85 % 0 lf 1016,8 hPa 0,0 l/m 0 min 0 min 9 W/m 6,3 km/h (2 Bft) 97,87 %
24.06.2016 21:54 21,8 C 20,6 C 19,4 C 85 % 0 lf 1017,0 hPa 0,0 l/m 0 min 0 min 9 W/m 6,3 km/h (2 Bft) 95,65 %
24.06.2016 21:56 21,8 C 20,6 C 18,9 C 85 % 0 lf 1017,0 hPa 0,0 l/m 0 min 0 min 8 W/m 4,2 km/h (1 Bft) 93,62 %
24.06.2016 21:58 21,8 C 20,6 C 18,9 C 85 % 0 lf 1017,1 hPa 0,0 l/m 0 min 0 min 7 W/m 6,3 km/h (2 Bft) 95,74 %
24.06.2016 22:00 21,7 C 20,0 C 18,9 C 85 % 0 lf 1017,1 hPa 0,0 l/m 0 min 0 min 7 W/m 6,3 km/h (2 Bft) 97,87 %
24.06.2016 22:02 21,7 C 20,0 C 18,9 C 85 % 0 lf 1016,9 hPa 0,0 l/m 0 min 0 min 7 W/m 6,3 km/h (2 Bft) 91,49 %
24.06.2016 22:04 21,7 C 20,0 C 18,9 C 85 % 0 lf 1016,9 hPa 0,0 l/m 0 min 0 min 5 W/m 6,3 km/h (2 Bft) 97,87 %
24.06.2016 22:06 21,6 C 20,0 C 18,9 C 85 % 0 lf 1016,9 hPa 0,0 l/m 0 min 0 min 5 W/m 6,3 km/h (2 Bft) 95,65 %
24.06.2016 22:08 21,6 C 20,0 C 18,9 C 85 % 0 lf 1017,0 hPa 0,0 l/m 0 min 0 min 5 W/m 6,3 km/h (2 Bft) 97,87 %
24.06.2016 22:10 21,5 C 20,0 C 18,9 C 85 % 0 lf 1017,1 hPa 0,0 l/m 0 min 0 min 2 W/m 6,3 km/h (2 Bft) 93,62 %
24.06.2016 22:12 21,4 C 20,0 C 18,9 C 86 % 0 lf 1017,1 hPa 0,0 l/m 0 min 0 min 0 W/m 4,2 km/h (1 Bft) 97,87 %
24.06.2016 22:14 21,4 C 20,0 C 18,9 C 85 % 0 lf 1017,1 hPa 0,0 l/m 0 min 0 min 0 W/m 6,3 km/h (2 Bft) 97,87 %
24.06.2016 22:16 21,4 C 20,0 C 18,9 C 85 % 0 lf 1017,1 hPa 0,0 l/m 0 min 0 min 0 W/m 6,3 km/h (2 Bft) 95,74 %
24.06.2016 22:18 21,3 C 20,0 C 18,9 C 86 % 0 lf 1017,1 hPa 0,0 l/m 0 min 0 min 0 W/m 4,2 km/h (1 Bft) 95,65 %
24.06.2016 22:20 21,3 C 20,0 C 18,9 C 86 % 0 lf 1017,0 hPa 0,0 l/m 0 min 0 min 0 W/m 6,3 km/h (2 Bft) 97,87 %
24.06.2016 22:22 21,3 C 20,0 C 18,9 C 86 % 0 lf 1017,0 hPa 0,0 l/m 0 min 0 min 0 W/m 2,1 km/h (1 Bft) 95,74 %
24.06.2016 22:24 21,2 C 19,4 C 18,3 C 86 % 0 lf 1017,0 hPa 0,0 l/m 0 min 0 min 0 W/m 2,1 km/h (1 Bft) 91,49 %
24.06.2016 22:26 21,2 C 19,4 C 18,3 C 86 % 0 lf 1017,0 hPa 0,0 l/m 0 min 0 min 0 W/m 0,0 km/h (0 Bft) 95,74 %
24.06.2016 22:28 21,2 C 19,4 C 18,3 C 86 % 0 lf 1017,1 hPa 0,0 l/m 0 min 0 min 0 W/m 0,0 km/h (0 Bft) 95,65 %
24.06.2016 22:30 21,2 C 19,4 C 18,3 C 86 % 0 lf 1017,1 hPa 0,0 l/m 0 min 0 min 0 W/m 0,0 km/h (0 Bft) 97,87 %
24.06.2016 22:32 21,1 C 19,4 C 18,3 C 86 % 0 lf 1017,1 hPa 0,0 l/m 0 min 0 min 0 W/m 0,0 km/h (0 Bft) 97,87 %
24.06.2016 22:34 21,1 C 19,4 C 18,3 C 87 % 0 lf 1017,1 hPa 0,0 l/m 0 min 0 min 0 W/m 0,0 km/h (0 Bft) 97,87 %
24.06.2016 22:36 21,1 C 19,4 C 18,3 C 87 % 0 lf 1017,1 hPa 0,0 l/m 0 min 0 min 0 W/m 4,2 km/h (1 Bft) 95,74 %
24.06.2016 22:38 21,0 C 19,4 C 18,3 C 87 % 0 lf 1017,1 hPa 0,0 l/m 0 min 0 min 0 W/m 2,1 km/h (1 Bft) 95,74 %
24.06.2016 22:40 21,0 C 19,4 C 18,3 C 87 % 0 lf 1017,0 hPa 0,0 l/m 0 min 0 min 0 W/m 0,0 km/h (0 Bft) 91,30 %
24.06.2016 22:42 21,0 C 19,4 C 18,3 C 87 % 0 lf 1017,0 hPa 0,0 l/m 0 min 0 min 0 W/m 0,0 km/h (0 Bft) 95,74 %
24.06.2016 22:44 20,9 C 19,4 C 18,3 C 87 % 0 lf 1017,0 hPa 0,0 l/m 0 min 0 min 0 W/m 0,0 km/h (0 Bft) 97,87 %
24.06.2016 22:46 20,9 C 19,4 C 18,3 C 87 % 0 lf 1017,0 hPa 0,0 l/m 0 min 0 min 0 W/m 0,0 km/h (0 Bft) 97,87 %
24.06.2016 22:48 20,9 C 19,4 C 17,8 C 87 % 0 lf 1016,9 hPa 0,0 l/m 0 min 0 min 0 W/m 0,0 km/h (0 Bft) 97,87 %
24.06.2016 22:50 20,9 C 19,4 C 17,8 C 87 % 0 lf 1017,0 hPa 0,0 l/m 0 min 0 min 0 W/m 0,0 km/h (0 Bft) 97,87 %
24.06.2016 22:52 20,8 C 18,9 C 17,8 C 87 % 0 lf 1017,0 hPa 0,0 l/m 0 min 0 min 0 W/m 2,1 km/h (1 Bft) 97,83 %
24.06.2016 22:54 20,8 C 18,9 C 17,8 C 88 % 0 lf 1016,9 hPa 0,0 l/m 0 min 0 min 0 W/m 2,1 km/h (1 Bft) 93,62 %
24.06.2016 22:56 20,8 C 18,9 C 17,8 C 88 % 0 lf 1017,0 hPa 0,0 l/m 0 min 0 min 0 W/m 2,1 km/h (1 Bft) 95,74 %
24.06.2016 22:58 20,7 C 18,9 C 17,8 C 88 % 0 lf 1017,0 hPa 0,0 l/m 0 min 0 min 0 W/m 0,0 km/h (0 Bft) 97,87 %
24.06.2016 23:00 20,7 C 18,9 C 17,8 C 88 % 0 lf 1017,0 hPa 0,0 l/m 0 min 0 min 0 W/m 0,0 km/h (0 Bft) 100,00 %
24.06.2016 23:02 20,7 C 18,9 C 18,3 C 88 % 0 lf 1016,9 hPa 0,0 l/m 0 min 0 min 0 W/m 2,1 km/h (1 Bft) 97,87 %
24.06.2016 23:04 20,7 C 18,9 C 18,3 C 88 % 0 lf 1016,9 hPa 0,0 l/m 0 min 0 min 0 W/m 0,0 km/h (0 Bft) 100,00 %
24.06.2016 23:06 20,7 C 18,9 C 17,8 C 88 % 0 lf 1016,9 hPa 0,0 l/m 0 min 0 min 0 W/m 0,0 km/h (0 Bft) 100,00 %
24.06.2016 23:08 20,6 C 18,9 C 17,8 C 88 % 0 lf 1017,0 hPa 0,0 l/m 0 min 0 min 0 W/m 4,2 km/h (1 Bft) 95,74 %
24.06.2016 23:10 20,6 C 18,9 C 17,8 C 88 % 0 lf 1017,0 hPa 0,0 l/m 0 min 0 min 0 W/m 4,2 km/h (1 Bft) 95,74 %
24.06.2016 23:12 20,6 C 18,9 C 17,8 C 89 % 0 lf 1016,9 hPa 0,0 l/m 0 min 0 min 0 W/m 6,3 km/h (2 Bft) 93,62 %
24.06.2016 23:14 20,6 C 18,9 C 17,8 C 89 % 0 lf 1016,9 hPa 0,0 l/m 0 min 0 min 0 W/m 4,2 km/h (1 Bft) 91,49 %
24.06.2016 23:16 20,5 C 18,9 C 17,8 C 89 % 0 lf 1016,9 hPa 0,0 l/m 0 min 0 min 0 W/m 2,1 km/h (1 Bft) 95,65 %
24.06.2016 23:18 20,5 C 18,9 C 17,8 C 89 % 0 lf 1016,9 hPa 0,0 l/m 0 min 0 min 0 W/m 2,1 km/h (1 Bft) 91,49 %
24.06.2016 23:20 20,4 C 18,9 C 17,8 C 89 % 0 lf 1016,8 hPa 0,0 l/m 0 min 0 min 0 W/m 0,0 km/h (0 Bft) 93,62 %
24.06.2016 23:22 20,4 C 18,9 C 17,8 C 89 % 0 lf 1016,8 hPa 0,0 l/m 0 min 0 min 0 W/m 4,2 km/h (1 Bft) 93,62 %
24.06.2016 23:24 20,4 C 18,9 C 17,2 C 89 % 0 lf 1016,8 hPa 0,0 l/m 0 min 0 min 0 W/m 6,3 km/h (2 Bft) 93,62 %
24.06.2016 23:26 20,4 C 18,9 C 17,2 C 89 % 0 lf 1016,8 hPa 0,0 l/m 0 min 0 min 0 W/m 6,3 km/h (2 Bft) 89,36 %
24.06.2016 23:28 20,3 C 18,9 C 17,2 C 89 % 0 lf 1016,7 hPa 0,0 l/m 0 min 0 min 0 W/m 8,4 km/h (2 Bft) 95,65 %
24.06.2016 23:30 20,3 C 18,3 C 17,2 C 89 % 0 lf 1016,8 hPa 0,0 l/m 0 min 0 min 0 W/m 6,3 km/h (2 Bft) 95,74 %
24.06.2016 23:32 20,2 C 18,3 C 17,2 C 89 % 0 lf 1016,8 hPa 0,0 l/m 0 min 0 min 0 W/m 6,3 km/h (2 Bft) 95,74 %
24.06.2016 23:34 20,2 C 18,3 C 17,2 C 89 % 0 lf 1016,8 hPa 0,0 l/m 0 min 0 min 0 W/m 10,5 km/h (2 Bft) 93,62 %
24.06.2016 23:36 20,2 C 18,9 C 17,2 C 89 % 0 lf 1016,8 hPa 0,0 l/m 0 min 0 min 0 W/m 8,4 km/h (2 Bft) 94,34 %
24.06.2016 23:38 20,1 C 18,9 C 17,2 C 89 % 0 lf 1016,9 hPa 0,0 l/m 0 min 0 min 0 W/m 6,3 km/h (2 Bft) 93,62 %
24.06.2016 23:40 20,1 C 18,3 C 17,2 C 89 % 0 lf 1016,8 hPa 0,0 l/m 0 min 0 min 0 W/m 6,3 km/h (2 Bft) 95,74 %
24.06.2016 23:42 20,1 C 18,3 C 17,2 C 89 % 0 lf 1016,8 hPa 0,0 l/m 0 min 0 min 0 W/m 10,5 km/h (2 Bft) 95,65 %
24.06.2016 23:44 20,0 C 18,3 C 17,2 C 89 % 0 lf 1016,8 hPa 0,0 l/m 0 min 0 min 0 W/m 8,4 km/h (2 Bft) 93,62 %
24.06.2016 23:46 19,9 C 18,3 C 17,2 C 89 % 0 lf 1016,8 hPa 0,0 l/m 0 min 0 min 0 W/m 6,3 km/h (2 Bft) 95,74 %
24.06.2016 23:48 19,9 C 18,3 C 17,2 C 89 % 0 lf 1016,8 hPa 0,0 l/m 0 min 0 min 0 W/m 8,4 km/h (2 Bft) 97,87 %
24.06.2016 23:50 19,8 C 18,3 C 17,2 C 89 % 0 lf 1016,8 hPa 0,0 l/m 0 min 0 min 0 W/m 8,4 km/h (2 Bft) 97,87 %
24.06.2016 23:52 19,8 C 18,3 C 17,2 C 89 % 0 lf 1016,8 hPa 0,0 l/m 0 min 0 min 0 W/m 10,5 km/h (2 Bft) 97,83 %
24.06.2016 23:54 19,7 C 18,3 C 17,2 C 89 % 0 lf 1016,8 hPa 0,0 l/m 0 min 0 min 0 W/m 8,4 km/h (2 Bft) 95,74 %
24.06.2016 23:56 19,7 C 18,3 C 17,2 C 89 % 0 lf 1016,8 hPa 0,0 l/m 0 min 0 min 0 W/m 6,3 km/h (2 Bft) 97,87 %
24.06.2016 23:58 19,6 C 18,3 C 17,2 C 88 % 0 lf 1016,8 hPa 0,0 l/m 0 min 0 min 0 W/m 6,3 km/h (2 Bft) 100,00 %
_ Min-Zeit 05:24 23:30 23:24 16:12 09:38 07:10 - - - - 05:34 00:02
Minimum _ 19,3 C 18,3 C 17,2 C 73 % 0 lf 1014,4 hPa - - - - 0,0 km/h (0 Bft) 14,29 %
_ Max-Zeit 16:48 10:52 16:06 08:56 00:00 15:10 03:18 08:46 02:16 15:48 13:12 02:44
Maximum _ 26,3 C 32,8 C 32,8 C 100 % 15 lf 1017,3 hPa 2,2 l/m 2 min 2 min 922 W/m 27,2 km/h
W-NW (4 Bft)
100,00 %
Durchschnitt _ 22,2 C 23,2 C 21,7 C 89 % 6 lf 1016,2 hPa #26,2 l/m #4:24 h #2:31 h 207 W/m 10,2 km/h (2 Bft) 95,92 %
© 2016 W. Hausmann